Welcome to the New NWS' Forecast!
Most changes are behind the scenes, but click here for differences you might notice.
Latest weather observations around

Little Rock, Adams Field (KLIT)

Using English Units (Switch to International System of Units)
Date/ Time (CDT) Wind (mph) Vis. (mi) Weather Sky Cond. Temp (°F) Rel. Humidity Wind Chill (°F) Heat Index (°F) Pressure Precip. (in)
Air Dwpt 6 hour Altimeter (inHg) Sea level (inHg) 1 hr 3 hr 6 hr
Max Min
Jul 28 06:53 SW 5 7 Light Rain SCT060 BKN110 OVC200 76 76     100%   78 29.91 29.9 0   0
Jul 28 05:53 WSW 9 7 Light Rain FEW040 OVC070 78 76     93%   80 29.9 29.9 0    
Jul 28 04:53 SW 5 10 Cloudy BKN070 BKN120 OVC200 81 76     85%   87 29.87 29.86      
Jul 28 03:53 SW 5 10 Cloudy FEW075 BKN120 OVC200 81 77     88%   88 29.86 29.86      
Jul 28 02:53 SSW 6 10 Cloudy BKN120 OVC200 81 78     91%   89 29.87 29.86      
Jul 28 01:53 SSE 6 10 Cloudy FEW040 BKN120 OVC200 83 77     82%   92 29.88 29.87      
Jul 28 00:53 E 9 10 Cloudy BKN110 OVC200 83 77     82%   92 29.89 29.89      
Jul 27 23:53 SW 13 10 Cloudy FEW034 OVC100 84 77     80%   94 29.87 29.87      
Jul 27 22:53 SW 8 10 Cloudy BKN110 OVC250 85 77     77%   95 29.88 29.88      
Jul 27 21:53 SSW 8 10 Cloudy SCT110 OVC250 85 77     77%   95 29.88 29.88      
Jul 27 20:53 SW 3 10 Cloudy FEW070 FEW090 BKN110 OVC250 85 77     77%   95 29.88 29.88      
Jul 27 19:53 SW 9 10 Cloudy SCT050 BKN110 OVC250 87 76     70%   98 29.88 29.88      
Jul 27 18:53 SSW 8 10 Cloudy FEW050 SCT080 BKN150 OVC250 89 75     63%   99 29.88 29.87      
Jul 27 17:53   10 Cloudy FEW050 FEW080 SCT150 OVC250 92 75     58%   103 29.88 29.88      
Jul 27 16:53 S 10 10 Cloudy FEW050 FEW080 OVC250 93 77     60%   107 29.89 29.89      
Jul 27 15:53 SSW 10 10 Cloudy SCT045 BKN080 OVC200 93 77     60%   107 29.92 29.91      
Jul 27 14:53 S 10 10 Cloudy SCT045 BKN080 OVC200 93 75     56%   105 29.94 29.94      
Jul 27 13:53 SSW 6 10 Cloudy FEW045 SCT090 OVC200 92 76     60%   104 29.97 29.96      
Jul 27 12:53 WSW 8 10 Cloudy FEW045 SCT100 OVC250 91 75     60%   102 30 29.99      
Jul 27 11:53 WSW 9 10 Cloudy SCT100 OVC250 90 75     62%   101 30.01 30.01      
Jul 27 10:53 W 9 10 Cloudy FEW100 OVC250 88 75     66%   98 30.02 30.01      
Jul 27 09:53 W 9 10 Mostly Cloudy SCT150 BKN250 87 75     68%   97 30.02 30.02      
Jul 27 05:53 SW 3 10 Partly Cloudy SCT250 77 75     94%   79 30 29.99      
Jul 27 04:53 SW 5 10 Clear CLR 77 75     94%   79 29.98 29.98      
Jul 27 03:53 WSW 5 10 Clear CLR 78 76     93%   80 29.99 29.98      
Jul 27 01:53 SSW 3 10 Clear CLR 79 76     90%   83 30 30      
Jul 27 00:53 SSW 8 10 Mostly Clear FEW200 79 76     90%   83 30.01 30.01      
Jul 26 23:53 S 5 10 Partly Cloudy SCT200 80 76     87%   85 30.01 30.01      
Jul 26 22:53 S 8 9 Partly Cloudy SCT200 81 77     88%   88 30.01 30.01      
Jul 26 21:53 S 6 10 Partly Cloudy SCT200 82 77     85%   90 30.03 30.02      
Jul 26 20:53 S 6 10 Mostly Cloudy SCT100 BKN200 83 76     79%   91 30.01 30.01      
Jul 26 19:53 S 5 10 Cloudy BKN100 OVC250 85 75     72%   93 30 30      
Jul 26 18:53 SSW 9 10 Cloudy OVC250 90 74     59%   99 30 30      
Jul 26 17:53 SW 10 10 Cloudy OVC250 92 73     54%   101 30 30      
Jul 26 16:53 SW 11 10 Mostly Cloudy FEW060 BKN250 94 74     53%   104 30.01 30      
Jul 26 15:53 S 13 10 Mostly Cloudy SCT055 BKN250 95 74     51%   106 30.02 30.02      
Jul 26 14:53 S 10 10 Partly Cloudy SCT045 94 73     51%   103 30.04 30.04      
Jul 26 13:53 SW 9 10 Partly Cloudy SCT040 94 73     51%   103 30.07 30.06      
Jul 26 12:53 3 10 Partly Cloudy SCT040 92 73     54%   101 30.08 30.07      
Jul 26 11:53 S 9 10 Mostly Clear FEW030 91 75     60%   102 30.09 30.09      
Jul 26 10:53 WSW 8 10 Mostly Clear FEW025 89 75     63%   99 30.1 30.1      
Jul 26 09:53 WSW 8 10 Clear CLR 86 76     72%   96 30.1 30.1      
Jul 26 08:53 SW 7 10 Clear CLR 83 74     74%   89 30.1 30.1      
Jul 26 07:53 SW 7 10 Mostly Clear FEW250 79 74     85%   83 30.1 30.1      
Jul 26 06:53 WSW 3 10 Mostly Clear FEW250 76 73     91%   77 30.09 30.09      
Jul 26 05:53 WSW 3 10 Clear CLR 76 74     94%   78 30.09 30.09      
Jul 26 04:53 WSW 7 10 Clear CLR 78 73     85%   80 30.07 30.07      
Jul 26 03:53 WSW 5 10 Clear CLR 78 73     85%   80 30.07 30.07      
Jul 26 02:53 SW 7 10 Clear CLR 80 74     82%   85 30.07 30.07      
Jul 26 01:53 SW 8 10 Clear CLR 81 75     82%   87 30.07 30.07      
Jul 26 00:53 SW 9 10 Clear CLR 82 76     82%   89 30.07 30.07      
Jul 25 23:53 SSW 8 10 Clear CLR 83 76     79%   91 30.06 30.05      
Jul 25 22:53 SW 6 10 Clear CLR 82 77     85%   90 30.05 30.05      
Jul 25 21:53 SW 9 10 Mostly Clear FEW120 85 77     77%   95 30.04 30.03      
Jul 25 20:53 S 8 10 Partly Cloudy SCT120 SCT250 85 78     80%   97 30.04 30.03      
Jul 25 19:53 S 7 10 Partly Cloudy FEW055 FEW120 SCT250 88 77     70%   100 30.03 30.03      
Jul 25 18:53 SSE 7 10 Partly Cloudy FEW055 SCT250 91 76     61%   103 30.03 30.02      
Jul 25 17:53 S 8 10 Partly Cloudy SCT055 SCT250 93 75     56%   105 30.03 30.03      
Jul 25 16:53 SSE 11 10 Partly Cloudy SCT050 94 76     56%   107 30.03 30.03      
Jul 25 15:53 SSW 7 10 Partly Cloudy SCT050 SCT250 94 74     53%   104 30.04 30.03      
Jul 25 14:53 SSW 8 10 Partly Cloudy SCT045 SCT250 93 75     56%   105 30.05 30.05      
Jul 25 13:53 S 7 10 Partly Cloudy SCT042 SCT250 93 75     56%   105 30.06 30.06      
Jul 25 12:53 W 7 10 Partly Cloudy SCT040 92 76     60%   104 30.07 30.07      
Jul 25 11:53 5 10 Partly Cloudy SCT035 90 76     64%   102 30.08 30.08      
Jul 25 09:53 SSW 5 10 Clear CLR 87 77     72%   99 30.08 30.08      
Jul 25 08:53 WSW 8 10 Clear CLR 83 77     82%   92 30.08 30.08      
Jul 25 07:53 WSW 6 10 Partly Cloudy SCT060 79 77     94%   83 30.09 30.08      
Jul 25 06:53 Calm 6 Fog/Mist SCT060 76 76     100%   78 30.07 30.07      
Jul 25 05:53 Calm 10 Partly Cloudy FEW060 SCT200 77 76     96%   79 30.05 30.04      
Jul 25 04:53 Calm 10 Clear CLR 77 77     100%   79 30.03 30.03      
Jul 25 03:53 SW 6 10 Clear CLR 78 77     96%   81 30.01 30.01      
Jul 25 02:53 SW 5 10 Clear CLR 78 78     100%   81 30 30      
Jul 25 01:53 WSW 3 10 Clear CLR 79 78     97%   83 30 29.99      
Jul 25 00:53 SSE 3 10 Clear CLR 79 78     97%   83 29.99 29.99      
Jul 24 23:53 SW 5 10 Mostly Cloudy FEW047 BKN060 81 79     94%   89 29.99 29.99      
Jul 24 22:53 S 5 10 Mostly Clear FEW250 82 79     90%   92 30 29.99      
Jul 24 21:53 S 7 10 Mostly Clear FEW250 82 79     90%   92 29.97 29.97      
Jul 24 20:53 S 6 10 Mostly Clear FEW040 FEW250 83 79     88%   94 29.94 29.94      
Jul 24 19:53 S 7 10 Mostly Clear FEW040 FEW250 86 79     80%   100 29.93 29.93      
Jul 24 18:53 SSE 6 10 Partly Cloudy FEW040 SCT250 89 78     70%   103 29.91 29.91      
Jul 24 17:53 SSE 7 10 Mostly Cloudy SCT040 BKN250 90 78     68%   105 29.91 29.91      
Jul 24 16:53 SE 6 10 Mostly Cloudy SCT040 BKN250 90 77     66%   103 29.91 29.91      
Jul 24 15:53 SE 8 10 Mostly Cloudy SCT035 BKN250 92 78     64%   107 29.92 29.92      
Jul 24 14:53 SE 7 10 Mostly Cloudy SCT035 BKN250 90 78     68%   105 29.93 29.93      
Jul 24 13:53 ESE 6 10 Mostly Cloudy FEW035 BKN250 89 76     65%   100 29.95 29.94      
Jul 24 12:53 SSE 6 10 Partly Cloudy FEW030 SCT150 SCT250 89 77     68%   102 29.96 29.95      
Jul 24 11:53 Calm 10 Partly Cloudy FEW030 SCT150 SCT250 87 75     68%   97 29.96 29.96      
Jul 24 10:53 Calm 10 Partly Cloudy FEW080 SCT250 85 74     70%   92 29.96 29.96      
Jul 24 09:53 NNW 7 10 Partly Cloudy FEW050 SCT130 SCT250 83 75     77%   90 29.96 29.96      
Jul 24 08:53 NW 6 10 Mostly Cloudy FEW050 BKN130 BKN250 80 74     82%   85 29.96 29.96      
Jul 24 07:53 W 6 10 Mostly Cloudy FEW050 SCT130 BKN250 74 74     100%   76 29.95 29.95      
Jul 24 06:53 W 8 10 Mostly Cloudy FEW045 BKN120 73 73     100%   75 29.93 29.93      
Jul 24 05:53 Calm 10 Mostly Cloudy SCT150 BKN250 72 72     100%   74 29.93 29.93      
Jul 24 04:53 S 3 10 Mostly Cloudy BKN250 72 72     100%   74 29.91 29.9      
Jul 24 03:53 S 6 10 Mostly Cloudy BKN250 72 72     100%   74 29.88 29.88      
Jul 24 02:53   10 Mostly Cloudy BKN250 74 73     97%   76 29.87 29.86      
Jul 24 01:53 WNW 6 10 Mostly Cloudy BKN250 72 72     100%   74 29.88 29.88      
Jul 24 00:53 3 10 Cloudy FEW006 SCT070 OVC250 71 71     100%   73 29.92 29.91 0   1
Jul 24 00:33 SSE 11 7 Light Rain FEW006 OVC070 72 72     100%   74 29.93   0    
Jul 24 00:18   5 Thunderstorms and Rain and Fog/Mist SCT018 OVC070 73 73     100%   75 29.95   0    
Jul 23 23:53 E 13 3 Thunderstorms and Rain and Fog/Mist BKN018 BKN030 OVC050 73 73     100%   75 29.96 29.96 1    
Jul 23 23:51 E 10 3 Thunderstorms and Rain and Fog/Mist and Squalls BKN018 BKN030 OVC050 72 72     100%   73 29.96   1    
Jul 23 23:49 E 11 1.5 Thunderstorms and Heavy Rain and Fog/Mist and Squalls BKN018 BKN030 OVC050 72 72     100%   73 29.96   1    
Jul 23 23:41   0.75 Thunderstorms and Heavy Rain and Fog/Mist BKN018 BKN030 OVC050 72 72     100%   74 29.95   1    
Jul 23 23:37   1.75 Thunderstorms and Heavy Rain and Fog/Mist SCT018 BKN030 OVC050 72 72     100%   74 29.96   0    
Jul 23 23:27   2.5 Thunderstorms and Heavy Rain and Fog/Mist SCT020 BKN030 OVC050 72 71     97%   73 29.97   0    
Jul 23 23:23   3 Thunderstorms and Heavy Rain and Fog/Mist SCT020 BKN030 OVC050 73 72     96%   75 29.97   0    
Jul 23 23:09   10 Cloudy SCT025 BKN030 OVC050 76 74     94%   78 29.95        
Jul 23 22:53 SSE 3 10 Cloudy BKN050 BKN150 OVC250 77 75     94%   79 29.93 29.93 0    
Jul 23 22:30 SW 8 10 Cloudy SCT050 BKN080 OVC150 77 75     94%   79 29.9   0    
Jul 23 22:15 SW 5 5 Light Rain SCT045 BKN075 OVC150 77 74     90%   79 29.89   0    
Jul 23 22:08 W 8 3 Heavy Rain and Fog/Mist BKN045 OVC080 77 73     88%   79 29.89   0    
Jul 23 22:03 W 8 7 Light Rain BKN050 BKN100 OVC250 80 73     79%   84 29.89   0    
Jul 23 21:53 W 6 10 Cloudy BKN050 BKN100 OVC250 81 73     77%   86 29.89 29.88      
Jul 23 20:53 W 9 10 Cloudy BKN045 BKN150 OVC250 82 75     79%   89 29.87 29.86      
Jul 23 19:53 SW 8 10 Cloudy SCT045 BKN150 OVC250 85 79     82%   98 29.84 29.83      
Jul 23 18:53 Calm 10 Cloudy SCT045 BKN150 OVC250 89 79     72%   105 29.81 29.8     0
Jul 23 17:53 Calm 10 Mostly Cloudy SCT045 BKN150 BKN250 90 78     68%   105 29.82 29.82      
Jul 23 16:53 WSW 5 10 Mostly Cloudy SCT040 SCT100 BKN250 87 79     77%   101 29.83 29.83 0    
Notice The following observation data may not be complete
Jul 23 15:53 Calm 7 Light Rain SCT045 SCT095 BKN250   75      %     29.84 29.83 0 0  
Notice The following observation data may not be complete
Jul 23 15:48 W 5 7 Light Rain SCT045 SCT095 BKN250   72      %     29.84   0    
Jul 23 15:12   8 Thunderstorms and Rain SCT045 SCT250 86 74     67%   94 29.84   0    
Jul 23 14:53 ESE 6 10 Partly Cloudy SCT045 SCT250 94 72     49%   102 29.84 29.83      
Jul 23 13:53 Calm 10 Partly Cloudy SCT045 SCT250 94 74     53%   104 29.85 29.85      
Jul 23 12:53 3 10 Mostly Clear FEW042 95 75     53%   107 29.88 29.88      
Jul 23 11:53 NNW 3 10 Mostly Clear FEW040 FEW250 93 76     58%   106 29.9 29.89      
Jul 23 10:53 3 10 Mostly Clear FEW060 FEW250 90 76     64%   102 29.92 29.91      
Jul 23 09:53 SW 5 10 Mostly Clear FEW250 85 77     77%   95 29.93 29.92      
Jul 23 08:53 SW 5 10 Mostly Clear FEW250 81 76     85%   87 29.93 29.93      
Jul 23 07:53 W 3 10 Partly Cloudy SCT250 78 76     93%   80 29.93 29.93      
Jul 23 06:53 WSW 5 10 Partly Cloudy SCT250 76 75     97%   78 29.91 29.91      
Jul 23 05:53 SSW 6 10 Mostly Clear FEW250 75 75     100%   77 29.9 29.9      
Jul 23 04:53 S 3 10 Clear CLR 77 75     94%   79 29.9 29.89      
Jul 23 02:53 SW 10 10 Mostly Clear FEW250 78 76     93%   80 29.88 29.88      
Jul 23 01:53 SSW 7 10 Clear CLR 79 77     94%   83 29.89 29.89      
Jul 23 00:53 SSW 5 10 Clear CLR 81 77     88%   88 29.89 29.88      
Jul 22 23:53 S 9 10 Mostly Clear FEW250 81 78     91%   89 29.9 29.89      
Jul 22 22:53 SSW 7 10 Mostly Clear FEW250 83 77     82%   92 29.91 29.91      
Jul 22 21:53 S 7 10 Light Rain FEW250 83 78     85%   93 29.91 29.9 0 0  
Jul 22 20:53 S 6 10 Mostly Clear FEW250 85 78     80%   97 29.89 29.88      
Jul 22 19:53 S 7 10 Mostly Clear FEW250 88 76     68%   99 29.87 29.87      
Jul 22 18:53 S 9 10 Mostly Clear FEW250 92 76     60%   104 29.86 29.86      
Jul 22 17:53 S 8 10 Mostly Clear FEW050 FEW250 93 76     58%   106 29.87 29.87      
Jul 22 16:53 SW 9 10 Partly Cloudy SCT050 94 75     54%   106 29.88 29.88      
Jul 22 15:53 S 8 10 Partly Cloudy SCT050 94 76     56%   107 29.89 29.89      
Jul 22 14:53 WSW 8 10 Partly Cloudy SCT045 95 75     53%   107 29.91 29.91      
Jul 22 13:53 SSW 10 10 Partly Cloudy SCT045 94 75     54%   106 29.93 29.93      
Jul 22 12:53 SSW 10 10 Mostly Clear FEW040 94 75     54%   106 29.95 29.94      
Jul 22 11:53 SW 10 10 Mostly Clear FEW040 93 74     54%   103 29.96 29.96      
Jul 22 10:53 SSW 9 10 Clear CLR 91 78     66%   106 29.97 29.97      
Jul 22 09:53 SSW 7 10 Clear CLR 88 77     70%   100 29.98 29.97      
Jul 22 08:53 SW 6 10 Clear CLR 85 77     77%   95 29.98 29.98      
Jul 22 07:53 SW 7 9 Clear CLR 80 77     90%   86 29.97 29.97      
Jul 22 06:53 S 5 6 Fog/Mist CLR 77 77     100%   79 29.95 29.95      
Jul 22 05:53 S 3 6 Fog/Mist CLR 77 77     100%   79 29.94 29.94      
Jul 22 04:53 Calm 7 Clear CLR 78 77     96%   81 29.93 29.93      
Jul 22 03:53 Calm 8 Clear CLR 80 78     94%   86 29.93 29.92      
Jul 22 02:53 SW 3 9 Clear CLR 79 78     97%   83 29.93 29.93      
Jul 22 01:53 WSW 5 10 Clear CLR 80 78     94%   86 29.95 29.95      
Jul 22 00:53 WSW 5 10 Clear CLR 82 77     85%   90 29.96 29.95      
Jul 21 23:53 SSW 7 10 Clear CLR 82 77     85%   90 29.96 29.95      
Jul 21 22:53 S 8 9 Clear CLR 83 78     85%   93 29.96 29.95      
Jul 21 21:53 S 9 10 Clear CLR 84 78     82%   95 29.96 29.96      
Jul 21 20:53 S 7 10 Mostly Clear FEW250 85 78     80%   97 29.94 29.94      
Jul 21 19:53 S 5 10 Mostly Clear FEW055 FEW250 89 77     68%   102 29.94 29.94      
Jul 21 18:53 S 9 10 Mostly Clear FEW055 FEW250 92 76     60%   104 29.93 29.93      
Jul 21 17:53 S 8 10 Mostly Clear FEW055 FEW250 94 74     53%   104 29.93 29.93      
Jul 21 16:53 SSE 8 10 Mostly Clear FEW055 95 73     49%   105 29.94 29.94      
Jul 21 15:53 SSE 8 10 Partly Cloudy SCT055 SCT250 95 75     53%   107 29.96 29.96      
Jul 21 14:53 SSE 8 10 Mostly Cloudy SCT055 BKN250 96 74     49%   107 29.98 29.98      
Jul 21 12:53 S 9 10 Mostly Cloudy SCT045 BKN055 94 76     56%   107 30.01 30.01      
Jul 21 11:53 SSW 9 10 Mostly Cloudy SCT030 BKN045 93 77     60%   107 30.02 30.01      
Jul 21 10:53 WSW 5 10 Mostly Clear FEW025 92 78     64%   107 30.03 30.03      
Jul 21 09:53 SW 7 10 Clear CLR 89 78     70%   103 30.04 30.03      
Jul 21 08:53 S 3 9 Clear CLR 86 79     80%   100 30.04 30.04      
Jul 21 07:53 Calm 7 Clear CLR 82 78     88%   91 30.04 30.04      
Jul 21 06:53 Calm 6 Fog/Mist FEW250 78 78     100%   81 30.03 30.03      
Jul 21 05:53 SW 5 7 Mostly Clear FEW250 77 77     100%   79 30.01 30.01      
Jul 21 04:53 SW 3 10 Clear CLR 78 77     96%   81 30 30      
Jul 21 03:53 WSW 5 10 Clear CLR 79 78     97%   83 30 30      
Jul 21 02:53 WSW 7 10 Clear CLR 80 78     94%   86 30.01 30      
Jul 21 01:53 SW 5 10 Clear CLR 81 77     88%   88 30.01 30      
Jul 21 00:53 WSW 6 10 Clear CLR 82 76     82%   89 30.02 30.01      
Jul 20 23:53 SW 5 10 Clear CLR 83 77     82%   92 30.02 30.02      
Jul 20 22:53 S 6 10 Clear CLR 83 79     88%   94 30.03 30.02      
Jul 20 21:53 SSE 5 10 Clear CLR 84 79     85%   96 30.02 30.02      
Jul 20 20:53 SSE 6 10 Mostly Clear FEW250 86 78     77%   98 30.01 30.01      
Jul 20 19:53 S 6 10 Mostly Clear FEW250 89 77     68%   102 30 30      
Jul 20 18:53 S 7 10 Mostly Clear FEW250 92 76     60%   104 30 29.99      
Jul 20 17:53 S 8 10 Partly Cloudy SCT050 SCT250 93 74     54%   103 30 30      
Jul 20 16:53 SSE 8 10 Partly Cloudy SCT050 94 74     53%   104 30.02 30.02      
Jul 20 15:53 S 9 10 Partly Cloudy SCT045 95 75     53%   107 30.03 30.03      
Jul 20 14:53 SW 7 10 Partly Cloudy SCT045 95 73     49%   105 30.06 30.05      
Jul 20 13:53 SW 8 10 Mostly Cloudy SCT040 BKN180 95 74     51%   106 30.08 30.07      
Jul 20 12:53 WSW 7 10 Partly Cloudy SCT035 93 77     60%   107 30.1 30.09      
Jul 20 11:53 SW 5 10 Partly Cloudy SCT035 91 75     60%   102 30.11 30.11      
Jul 20 10:53 WSW 6 10 Mostly Clear FEW025 91 76     61%   103 30.12 30.12      
Jul 20 09:53 SW 7 10 Clear CLR 89 77     68%   102 30.11 30.11      
Jul 20 08:53 SW 7 10 Mostly Clear FEW250 85 77     77%   95 30.12 30.11      
Jul 20 07:53 SW 3 7 Mostly Clear FEW250 82 78     88%   91 30.12 30.12      
Jul 20 06:53 Calm 10 Mostly Clear FEW200 78 77     96%   81 30.12 30.11      
Jul 20 04:53 WSW 3 10 Clear CLR 78 77     96%   81 30.09 30.08      
Jul 20 03:53 SW 3 10 Mostly Clear FEW100 79 77     94%   83 30.08 30.08      
Jul 20 02:53 WSW 3 10 Clear CLR 79 77     94%   83 30.09 30.08      
Jul 20 01:53 Calm 10 Clear CLR 80 76     87%   85 30.09 30.09      
Jul 20 00:53 Calm 10 Clear CLR 81 77     88%   88 30.09 30.09      
Jul 19 23:53 S 6 10 Mostly Clear FEW250 81 78     91%   89 30.09 30.08      
Jul 19 22:53 SSE 5 10 Mostly Clear FEW250 82 77     85%   90 30.09 30.09      
Jul 19 21:53 Calm 10 Mostly Clear FEW250 83 78     85%   93 30.08 30.07      
Jul 19 20:53 S 3 10 Partly Cloudy FEW080 SCT250 85 77     77%   95 30.06 30.06      
Jul 19 19:53 SSE 5 10 Mostly Clear FEW080 88 75     66%   98 30.06 30.05      
Jul 19 18:53 SSE 6 10 Partly Cloudy SCT065 91 73     56%   100 30.05 30.05      
Jul 19 17:53 ESE 7 10 Partly Cloudy SCT055 92 73     54%   101 30.05 30.05      
Jul 19 16:53 SE 6 10 Partly Cloudy SCT055 93 72     51%   101 30.07 30.06      
Jul 19 15:53 SE 7 10 Partly Cloudy SCT050 94 73     51%   103 30.08 30.08      
Jul 19 14:53 E 7 10 Partly Cloudy SCT050 94 73     51%   103 30.1 30.1      
Jul 19 13:53 5 10 Partly Cloudy SCT045 94 73     51%   103 30.12 30.12      
Jul 19 12:53 SSE 5 10 Partly Cloudy SCT040 SCT250 91 69     49%   96 30.14 30.13      
Jul 19 11:53 S 7 10 Mostly Cloudy SCT035 BKN250 93 73     52%   102 30.15 30.14      
Jul 19 10:53 S 3 10 Partly Cloudy FEW025 SCT250 88 76     68%   99 30.15 30.15      
Jul 19 09:53 WSW 3 10 Partly Cloudy SCT150 SCT250 86 75     70%   95 30.15 30.14      
Jul 19 05:53 SSW 3 10 Mostly Cloudy BKN200 75 75     100%   77 30.12 30.11      
Jul 19 03:53 Calm 10 Partly Cloudy SCT200 78 75     90%   80 30.1 30.09      
Jul 19 01:53 Calm 10 Partly Cloudy SCT200 78 75     90%   80 30.09 30.09      
Jul 19 00:53 S 3 10 Clear CLR 78 76     93%   80 30.09 30.08      
Jul 18 23:53 SSE 5 10 Mostly Clear FEW200 79 76     90%   83 30.08 30.08      
Jul 18 22:53 Calm 10 Mostly Clear FEW200 81 76     85%   87 30.08 30.08      
Jul 18 21:53 Calm 10 Mostly Clear FEW150 81 76     85%   87 30.07 30.06      
Jul 18 20:53 Calm 10 Mostly Clear FEW080 83 75     77%   90 30.04 30.04      
Jul 18 19:53 E 5 10 Mostly Clear FEW065 87 74     65%   95 30.03 30.03      
Jul 18 18:53 E 6 10 Partly Cloudy FEW060 SCT250 89 72     57%   96 30.03 30.03      
Jul 18 17:53 E 7 10 Mostly Cloudy SCT060 BKN250 90 72     56%   97 30.02 30.01      
Jul 18 16:53 E 9 10 Partly Cloudy SCT055 92 71     51%   99 30.03 30.03      
Jul 18 15:53 E 8 10 Partly Cloudy SCT055 92 71     51%   99 30.04 30.03      
Jul 18 14:53 3 10 Partly Cloudy SCT045 92 71     51%   99 30.05 30.05      
Jul 18 13:53 NE 3 10 Partly Cloudy SCT045 90 70     52%   95 30.06 30.06      
Jul 18 12:53 N 6 10 Partly Cloudy SCT040 89 71     55%   95 30.07 30.07      
Jul 18 11:53 Calm 10 Mostly Clear FEW030 90 71     54%   96 30.08 30.08      
Jul 18 10:53 S 5 10 Mostly Clear FEW030 87 72     61%   94 30.08 30.08      
Jul 18 09:53 Calm 10 Mostly Clear FEW045 85 72     65%   91 30.08 30.08      
Jul 18 08:53 Calm 7 Partly Cloudy SCT045 82 72     72%   87 30.08 30.08      
Jul 18 05:53 Calm 10 Mostly Clear FEW080 FEW250 72 71     97%   73 30.05 30.05      
Jul 18 03:53 Calm 10 Clear CLR 72 71     97%   73 30.02 30.01      
Jul 18 02:53 SW 3 10 Clear CLR 73 72     96%   75 30.01 30.01      
Jul 18 01:53 Calm 10 Clear CLR 74 72     94%   75 30.01 30      
Jul 18 00:53 Calm 10 Clear CLR 76 72     88%   77 30 30      
Jul 17 23:53 Calm 10 Clear CLR 75 72     90%   76 30 29.99      
Jul 17 22:53 SSE 3 10 Clear CLR 76 72     88%   77 29.99 29.99      
Jul 17 21:53 SSE 3 10 Mostly Clear FEW250 78 71     79%   79 29.97 29.97      
Jul 17 20:53 ESE 6 10 Partly Cloudy SCT250 82 69     65%   85 29.95 29.95      
Jul 17 19:53 ESE 5 10 Mostly Clear FEW250 85 69     59%   89 29.95 29.95      
Jul 17 18:53 3 10 Mostly Clear FEW050 FEW250 88 67     50%   91 29.96 29.95      
Jul 17 17:53 ESE 5 10 Mostly Clear FEW045 FEW250 89 68     50%   93 29.95 29.94      
Jul 17 14:53 ESE 8 10 Partly Cloudy SCT045 90 68     49%   94 29.97 29.97      
Jul 17 13:53 SSE 5 10 Clear   89 68     50%   93 29.99 29.99      
Jul 17 12:53 5 10 Partly Cloudy SCT045 89 69     52%   94 30 29.99      
Jul 17 11:53 3 10 Partly Cloudy SCT040 86 70     59%   91 30.01 30.01      
Jul 17 10:53 5 10 Partly Cloudy SCT035 88 69     54%   92 30.01 30.01      
Jul 17 09:53 Calm 10 Mostly Clear FEW030 85 72     65%   91 30.01 30.01      
Jul 17 08:53 Calm 10 Mostly Clear FEW030 83 73     72%   89 30.01 30.01      
Jul 17 07:53 Calm 10 Mostly Clear FEW025 79 75     88%   83 30 30      
Jul 17 06:53 Calm 10 Partly Cloudy SCT055 73 73     100%   75 29.99 29.99      
Jul 17 05:53 Calm 10 Partly Cloudy SCT050 73 73     100%   75 29.99 29.98      
Jul 17 04:53 Calm 8 Mostly Cloudy BKN050 73 73     100%   75 29.98 29.97      
Jul 17 03:53 Calm 8 Mostly Clear FEW050 FEW250 73 73     100%   75 29.96 29.96      
Jul 17 02:53 SW 3 10 Mostly Clear FEW250 73 73     100%   75 29.95 29.95      
Jul 17 01:53 SW 5 10 Partly Cloudy FEW050 SCT250 73 72     96%   75 29.96 29.95      
Jul 17 00:53 Calm 10 Mostly Cloudy SCT050 BKN250 78 73     85%   80 29.97 29.96      
Jul 16 23:53 Calm 10 Partly Cloudy SCT050 SCT250 78 73     85%   80 29.96 29.96      
Jul 16 22:53 Calm 10 Partly Cloudy FEW050 SCT250 78 73     85%   80 29.97 29.96      
Jul 16 21:53 Calm 10 Partly Cloudy SCT250 79 73     82%   82 29.96 29.96      
Jul 16 20:53 SE 3 10 Mostly Cloudy BKN250 80 74     82%   85 29.93 29.93      
Jul 16 19:53 ESE 6 10 Mostly Cloudy BKN250 84 72     67%   90 29.93 29.93      
Jul 16 18:53 E 8 10 Mostly Cloudy FEW055 SCT150 BKN250 86 71     61%   92 29.93 29.92      
Jul 16 17:53 E 7 10 Mostly Cloudy FEW045 BKN250 89 71     55%   95 29.93 29.92      
Jul 16 16:53 ENE 9 10 Mostly Cloudy FEW045 BKN250 89 72     57%   96 29.94 29.93      
Jul 16 15:53 3 10 Mostly Cloudy SCT045 BKN250 89 71     55%   95 29.95 29.95      
Jul 16 14:53 E 6 10 Mostly Cloudy SCT038 BKN250 89 72     57%   96 29.97 29.97      
Jul 16 13:53 5 10 Mostly Cloudy SCT035 SCT045 BKN250 89 74     61%   98 29.98 29.98      
Jul 16 12:53 E 8 10 Mostly Cloudy SCT035 BKN250 87 72     61%   94 30 30      
Jul 16 11:53 ENE 7 10 Mostly Cloudy SCT024 BKN250 86 75     70%   95 30.02 30.01      
Jul 16 10:53 ENE 6 10 Mostly Cloudy SCT022 BKN250 85 75     72%   93 30.03 30.02      
Jul 16 09:53 ENE 6 10 Mostly Cloudy SCT013 BKN200 82 75     79%   89 30.04 30.03      
Jul 16 08:53 ENE 5 10 Mostly Cloudy SCT009 BKN200 80 76     87%   85 30.04 30.04      
Jul 16 07:53 NE 5 4 Fog/Mist SCT005 BKN047 BKN200 77 77     100%   79 30.04 30.03      
Jul 16 07:45 NE 5 4 Fog/Mist SCT005 BKN047 BKN200 77 77     100%   79 30.04        
Jul 16 06:53 Calm 3 Fog/Mist OVC005 75 75     100%   77 30.02 30.02      
Jul 16 06:09 NE 6 3 Fog/Mist BKN005 BKN200 74 74     100%   76 30.01        
Jul 16 05:53 NE 5 5 Fog/Mist FEW110 SCT250 74 74     100%   76 30.01 30      
Jul 16 04:53 NE 5 7 Mostly Clear FEW250 75 75     100%   77 30 30      
Jul 16 03:53 ENE 3 8 Mostly Clear FEW250 76 75     97%   78 29.99 29.98      
Jul 16 02:53 Calm 8 Mostly Clear FEW250 76 75     97%   78 29.98 29.98      
Jul 16 01:53 N 3 10 Mostly Clear FEW250 77 75     94%   79 29.99 29.99      
Jul 16 00:53 ENE 5 10 Partly Cloudy FEW040 SCT250 77 75     94%   79 30.01 30.01      
Jul 15 23:53 NE 5 10 Mostly Clear FEW120 FEW250 77 75     94%   79 30.02 30.02      
Jul 15 22:53 Calm 10 Mostly Clear FEW250 79 76     90%   83 30.02 30.01      
Jul 15 21:53 NE 5 10 Mostly Clear FEW140 FEW250 80 76     87%   85 30.01 30      
Jul 15 20:53 E 7 10 Partly Cloudy FEW080 FEW140 SCT250 82 75     79%   89 30 30      
Jul 15 19:53 ENE 6 10 Mostly Clear FEW045 FEW250 84 74     72%   91 29.99 29.98      
Jul 15 18:53 E 11 10 Partly Cloudy FEW045 SCT080 SCT250 87 75     68%   97 29.98 29.98      
Jul 15 17:53   10 Partly Cloudy SCT045 SCT250 89 75     63%   99 29.98 29.98      
Jul 15 16:53 NE 10 10 Partly Cloudy SCT042 SCT250 91 74     57%   101 29.99 29.98      
Jul 15 15:53 6 10 Partly Cloudy SCT040 SCT250 91 74     57%   101 30 30      
Jul 15 14:53 NNE 10 10 Partly Cloudy SCT035 SCT250 91 75     60%   102 30.02 30.02      
Jul 15 13:53 6 10 Partly Cloudy FEW033 SCT250 88 73     61%   96 30.05 30.05      
Jul 15 12:53 NNE 6 10 Partly Cloudy FEW030 SCT110 SCT250 87 73     63%   95 30.08 30.08      
Jul 15 11:53 5 10 Partly Cloudy FEW026 SCT110 SCT250 85 73     68%   92 30.1 30.09      
Jul 15 10:53 7 10 Partly Cloudy FEW015 SCT100 SCT250 81 75     82%   87 30.1 30.1      
Jul 15 09:53 N 5 10 Partly Cloudy FEW013 SCT100 SCT250 82 76     82%   89 30.11 30.1      
Jul 15 08:53 NNE 5 10 Mostly Cloudy FEW007 SCT090 BKN250 78 75     90%   80 30.12 30.11      
Jul 15 07:53 E 7 10 Mostly Cloudy FEW003 SCT090 BKN250 75 74     96%   77 30.11 30.11      
Jul 15 06:53 Calm 10 Mostly Cloudy SCT090 BKN250 74 74     100%   76 30.11 30.1      
Jul 15 05:53 NNW 3 10 Mostly Cloudy SCT150 BKN250 72 72     100%   74 30.1 30.1      
Jul 15 04:53 NNW 3 10 Partly Cloudy SCT250 73 72     96%   75 30.07 30.07      
Jul 15 03:53 N 5 10 Mostly Clear FEW250 73 73     100%   75 30.07 30.07      
Jul 15 02:53 N 5 10 Partly Cloudy FEW150 SCT250 73 73     100%   75 30.07 30.07      
Jul 15 01:53 Calm 10 Mostly Cloudy FEW150 BKN250 74 73     97%   76 30.08 30.07      
Jul 15 00:53 NNW 3 10 Mostly Cloudy FEW150 BKN250 74 74     100%   76 30.08 30.08      
Jul 14 23:53 Calm 10 Mostly Cloudy FEW100 BKN250 75 75     100%   77 30.09 30.09      
Jul 14 22:53 Calm 10 Mostly Cloudy FEW100 BKN250 75 75     100%   77 30.09 30.09      
Jul 14 21:53 NNW 5 10 Cloudy FEW100 OVC250 76 75     97%   78 30.09 30.09      
Jul 14 20:53 N 3 10 Cloudy FEW100 OVC250 76 75     97%   78 30.08 30.07      
Jul 14 19:53 NNW 5 10 Cloudy FEW015 SCT100 OVC250 77 74     90%   79 30.08 30.07      
Jul 14 18:53 NNW 6 10 Mostly Cloudy SCT100 BKN250 78 74     87%   80 30.07 30.06     0
Jul 14 17:53 WNW 6 10 Mostly Cloudy SCT100 BKN250 78 74     87%   80 30.06 30.06 0    
Jul 14 17:05 NW 6 10 Light Rain FEW045 BKN090 BKN250 76 74     94%   78 30.07   0    
Jul 14 16:53 W 7 7 Thunderstorms and Rain FEW045 BKN110 BKN250 75 73     94%   77 30.07 30.07      
Jul 14 16:25 5 10 Thunderstorms and Rain FEW045 BKN110 BKN250 75 73     94%   77 30.09        
Jul 14 16:11 NNW 6 10 Mostly Cloudy FEW045 BKN110 BKN250 75 73     94%   77 30.09        
Jul 14 15:53   6 Thunderstorms and Rain and Fog/Mist FEW012 BKN045 OVC120 74 73     97%   76 30.09 30.09   0  
Jul 14 15:45   3 Thunderstorms and Rain and Fog/Mist FEW012 BKN045 OVC120 74 73     97%   76 30.1        
Jul 14 15:34   5 Thunderstorms and Rain and Fog/Mist BKN040 BKN060 OVC090 76 74     94%   78 30.11   0    
Jul 14 15:14   7 Thunderstorms and Rain SCT035 BKN090 BKN250 81 72     74%   85 30.09   0    
Jul 14 14:53   7 Thunderstorms and Rain SCT035 SCT090 BKN250 83 73     72%   89 30.08 30.08 0    
Jul 14 14:16 SW 8 10 Thunderstorms SCT035 SCT090 BKN250 89 74     61%   98 30.07        
Jul 14 14:04 SSW 8 10 Mostly Cloudy SCT035 SCT090 BKN250 87 73     63%   95 30.07        
Jul 14 13:53 S 11 10 Thunderstorms SCT035 BKN090 BKN250 85 71     63%   90 30.07 30.06      
Jul 14 13:34 S 11 10 Thunderstorms BKN035 BKN090 BKN250 86 75     70%   95 30.07        
Jul 14 12:53 E 5 10 Mostly Cloudy BKN035 BKN250 90 76     64%   102 30.09 30.09      
Jul 14 11:53 Calm 10 Partly Cloudy SCT032 89 76     65%   100 30.1 30.1      
Jul 14 10:53 3 10 Partly Cloudy FEW025 SCT250 88 77     70%   100 30.12 30.12      
Jul 14 09:53 W 5 10 Mostly Clear FEW050 FEW250 85 74     70%   92 30.12 30.11      
Jul 14 08:53 Calm 10 Partly Cloudy FEW040 SCT250 81 75     82%   87 30.13 30.12      
Jul 14 07:53 S 3 10 Partly Cloudy SCT035 SCT250 77 75     94%   79 30.13 30.12      
Jul 14 06:53 W 3 10 Mostly Cloudy BKN042 BKN110 75 74     96%   77 30.12 30.11      
Jul 14 05:53 S 5 10 Mostly Clear FEW250 74 74     100%   76 30.1 30.09      
Jul 14 04:53 WSW 3 10 Clear CLR 74 74     100%   76 30.1 30.1      
Jul 14 03:53 SSW 5 10 Clear CLR 75 75     100%   77 30.1 30.09      
Jul 14 02:53 SSE 3 10 Clear CLR 74 73     97%   76 30.11 30.1      
Jul 14 01:53 SSE 3 10 Clear CLR 74 73     97%   76 30.11 30.11      
Jul 14 00:53 Calm 10 Clear CLR 75 72     90%   76 30.11 30.11      
Jul 13 23:53 WSW 6 10 Mostly Clear FEW250 76 71     85%   77 30.11 30.11      
Jul 13 22:53 SSW 6 10 Mostly Clear FEW250 76 73     91%   77 30.11 30.11      
Jul 13 21:53 SW 6 10 Mostly Clear FEW250 78 73     85%   80 30.08 30.07      
Jul 13 20:53 W 8 10 Partly Cloudy SCT250 79 73     82%   82 30.05 30.04      
Jul 13 19:53 WSW 8 10 Partly Cloudy FEW042 FEW150 SCT250 83 74     74%   89 30.04 30.03      
Jul 13 18:53 SSW 7 10 Partly Cloudy FEW042 FEW150 SCT250 86 76     72%   96 30.05 30.04      
Jul 13 17:53 S 6 10 Partly Cloudy SCT048 SCT250 89 75     63%   99 30.05 30.04      
Jul 13 17:30 SSE 6 10 Partly Cloudy SCT048 SCT250 88 75     66%   98 30.05        
Jul 13 16:53 S 5 10 Thunderstorms SCT048 88 75     66%   98 30.06 30.06      
Jul 13 15:53 SSE 7 10 Mostly Cloudy BKN046 90 74     59%   99 30.06 30.06      
Jul 13 14:53 5 10 Partly Cloudy SCT040 93 74     54%   103 30.07 30.07      
Jul 13 13:53 SW 7 10 Partly Cloudy SCT040 90 75     62%   101 30.09 30.09      
Jul 13 12:53 Calm 10 Partly Cloudy SCT035 89 75     63%   99 30.11 30.1      
Jul 13 11:53 SW 5 10 Mostly Clear FEW020 88 75     66%   98 30.13 30.13      
Jul 13 10:53 WSW 6 10 Mostly Clear FEW020 86 75     70%   95 30.15 30.14      
Jul 13 07:53 WSW 3 10 Mostly Clear FEW008 77 75     94%   79 30.14 30.14      
Jul 13 07:12 SW 6 10 Partly Cloudy SCT008 75 74     96%   77 30.14        
Jul 13 06:53 SW 8 10 Mostly Cloudy BKN009 74 74     100%   76 30.13 30.13      
Jul 13 06:14 SSW 6 10 Mostly Cloudy FEW006 BKN011 73 73     100%   75 30.12        
Jul 13 05:53 S 5 10 Partly Cloudy SCT008 73 73     100%   75 30.12 30.12      
Jul 13 05:40 SSE 3 10 Partly Cloudy SCT008 74 74     100%   76 30.12        
Jul 13 04:53 SW 5 10 Clear CLR 74 74     100%   76 30.11 30.1      
Jul 13 03:53 SSW 6 10 Clear CLR 75 74     96%   77 30.09 30.08      
Jul 13 02:53 S 5 10 Clear CLR 75 75     100%   77 30.08 30.07      
Jul 13 01:53 S 7 10 Clear CLR 76 75     97%   78 30.07 30.07      
Jul 13 00:53 SSW 6 10 Clear CLR 77 75     94%   79 30.07 30.06      
Jul 12 23:53 SW 9 10 Mostly Clear FEW250 79 75     88%   83 30.06 30.06      
Jul 12 22:53 S 9 10 Mostly Clear FEW250 80 78     94%   86 30.05 30.05      
Jul 12 21:53 SSE 7 10 Partly Cloudy FEW110 SCT250 81 78     91%   89 30.05 30.05      
Jul 12 20:53 S 7 10 Partly Cloudy FEW045 FEW110 SCT250 83 77     82%   92 30.04 30.03      
Jul 12 19:53 S 7 10 Partly Cloudy FEW045 FEW110 SCT200 86 77     75%   97 30.03 30.03      
Jul 12 18:53 S 8 10 Partly Cloudy FEW045 SCT100 SCT200 89 75     63%   99 30.02 30.01      
Jul 12 17:53 S 8 10 Mostly Cloudy SCT045 SCT065 BKN200 91 75     60%   102 30.02 30.01      
Jul 12 15:53 SSW 8 10 Partly Cloudy SCT045 91 74     57%   101 30.03 30.03      
Jul 12 14:53 S 10 10 Partly Cloudy SCT040 90 74     59%   99 30.05 30.04      
Jul 12 12:53 SSW 10 10 Partly Cloudy SCT035 90 76     64%   102 30.07 30.06      
Jul 10 14:53 S 13 10 Partly Cloudy SCT040 90 72     56%   97 30.01 30      
Jul 10 13:53 S 7 10 Partly Cloudy SCT040 89 73     59%   97 30.02 30.01      
Jul 10 11:53 S 10 10 Partly Cloudy SCT030 88 73     61%   96 30.04 30.04      
Jul 10 10:53 S 7 10 Mostly Clear FEW025 86 73     65%   93 30.05 30.08      
Jul 10 09:53 S 9 10 Mostly Clear FEW250 84 72     67%   90 30.06 30.09      
Jul 10 07:53 Calm 10 Mostly Clear FEW250 76 72     88%   77 30.04 30.07      
Jul 10 06:53 Calm 10 Mostly Clear FEW250 71 70     96%   72 30.03 30.06      
Jul 10 05:53 Calm 10 Mostly Clear FEW250 70 70     100%     30.02 30.05      
Jul 10 04:53 Calm 10 Clear CLR 71 70     96%   72 30.01 30.04      
Jul 10 03:53 Calm 10 Clear CLR 72 71     97%   73 30.01 30.04      
Jul 10 02:53 Calm 10 Clear CLR 71 70     96%   72 30.02 30.05      
Jul 10 01:53 Calm 10 Clear CLR 72 71     97%   73 30.03 30.06      
Jul 10 00:53 Calm 10 Clear CLR 73 71     94%   74 30.04 30.07      
Jul 09 23:53 S 6 10 Clear CLR 74 71     91%   75 30.04 30.07      
Jul 09 22:53 S 6 10 Clear CLR 75 72     90%   76 30.04 30.07      
Jul 09 21:53 S 3 10 Mostly Clear FEW250 77 72     84%   78 30.02 30.05      
Jul 09 19:53 SSE 6 10 Mostly Clear FEW150 FEW250 83 71     67%   88 30.02 30.05      
Jul 09 17:53 SSE 8 10 Mostly Clear FEW040 FEW250 87 68     53%   91 30.01 30.04      
Jul 09 15:53 SE 9 10 Mostly Clear FEW042 FEW250 88 70     55%   93 30.05 30.08      
Jul 09 13:53 S 10 10 Mostly Clear FEW040 FEW250 88 70     55%   93 30.09 30.12      
Jul 09 12:53   10 Mostly Clear FEW042 FEW250 88 69     54%   92 30.09 30.12      
Jul 09 11:53 SSE 10 10 Mostly Clear FEW044 FEW250 87 67     51%   90 30.1 30.13      
Jul 09 09:53 ESE 6 10 Mostly Clear FEW020 FEW250 83 74     74%   89 30.1 30.13      
Jul 09 08:53 ESE 5 10 Mostly Clear FEW250 81 76     85%   87 30.1 30.13      
Jul 09 06:53 Calm 10 Mostly Clear FEW250 72 72     100%   74 30.09 30.12      
Jul 09 05:53 Calm 7 Partly Cloudy SCT250 72 72     100%   74 30.09 30.12      
Jul 09 04:53 Calm 10 Partly Cloudy SCT250 73 73     100%   75 30.08 30.11      
Jul 09 03:53 Calm 10 Partly Cloudy SCT250 73 73     100%   75 30.08 30.11      
Jul 09 02:53 Calm 10 Partly Cloudy SCT250 73 73     100%   75 30.07 30.12      
Jul 09 01:53 SW 3 10 Mostly Clear FEW250 75 75     100%   77 30.09 30.12      
Jul 09 00:53 SW 5 10 Partly Cloudy SCT250 75 74     96%   77 30.09 30.12      
Jul 08 23:53 WSW 3 10 Partly Cloudy SCT250 76 75     97%   78 30.06 30.09      
Jul 08 22:53 Calm 10 Clear CLR 77 75     94%   79 30.06 30.09      
Jul 08 21:53 SSE 5 10 Mostly Clear FEW250 78 75     90%   80 30.06 30.09      
Jul 08 20:53 S 5 10 Partly Cloudy SCT150 SCT250 79 75     88%   83 30.04 30.07      
Jul 08 19:53 ESE 7 10 Partly Cloudy FEW040 SCT150 SCT250 84 74     72%   91 30.01 30.04      
Jul 08 18:53 E 7 10 Partly Cloudy FEW040 SCT150 87 72     61%   94 30 30.03      
Jul 08 15:53 NW 5 10 Partly Cloudy SCT035 SCT150 SCT250 89 72     57%   96 30.04 30.07      
Jul 08 14:53 7 10 Mostly Cloudy SCT030 BKN150 BKN200 87 68     53%   91 30.06 30.09      
Jul 08 13:53 NNW 7 10 Mostly Cloudy SCT030 SCT120 BKN250 86 68     55%   89 30.1 30.13      
Jul 08 12:53 3 10 Mostly Cloudy SCT030 SCT120 BKN250 84 71     65%   89 30.1 30.13     0
Jul 08 11:53 WSW 5 10 Mostly Cloudy FEW025 SCT120 BKN250 79 72     79%   82 30.11 30.14      
Jul 08 10:53 Calm 10 Mostly Cloudy FEW015 BKN120 BKN200 76 71     85%   77 30.08 30.11      
Jul 08 09:53 WSW 13 10 Mostly Cloudy FEW025 SCT095 BKN150 BKN250 75 72     90%   76 30.08 30.11   0  
Jul 08 08:53 NNW 6 10 Mostly Cloudy FEW010 BKN100 BKN250 75 71     88%   76 30.08 30.11 0    
Jul 08 07:53 Calm 10 Light Rain FEW030 BKN095 BKN250 71 70     96%   72 30.08 30.09 0    
Jul 08 07:25 ENE 3 7 Light Rain BKN100 OVC250 70 69     97%     30.06   0    
Jul 08 07:10 ENE 6 7 Thunderstorms and Rain FEW050 OVC100 69 69     100%     30.09   0    
Jul 08 06:53 E 6 4 Thunderstorms and Rain and Fog/Mist SCT050 OVC100 70 69     97%     30.09 30.12 0   1
Notice The following observation data may not be complete
Jul 08 06:13   6 Thunderstorms and Rain and Fog/Mist BKN050 OVC100          %         0    
Jul 08 05:53   4 Thunderstorms and Rain and Fog/Mist SCT020 OVC050 70 68     93%     30.06 30.09 0    
Jul 08 05:45   2 Thunderstorms and Rain and Fog/Mist BKN020 OVC050 69 68     96%     30.06   0    
Jul 08 05:21   4 Thunderstorms and Rain BKN025 OVC050 77 69     77%   78     0    
Jul 08 05:00   10 Thunderstorms SCT050 OVC100 77 73     88%   79 30.02        
Jul 08 04:53 Calm 10 Cloudy SCT050 OVC100 77 74     90%   79 29.99 29.98      
Jul 08 03:53 Calm 10 Cloudy FEW050 BKN100 OVC250 76 72     88%   77 29.99 29.98      
Jul 08 02:53 ESE 7 10 Mostly Cloudy SCT100 BKN250 78 72     82%   79 29.98 29.98      
Jul 08 01:53 NE 6 10 Mostly Cloudy BKN100 BKN250 80 78     94%   86 30 30      
Jul 08 00:53 SW 6 10 Mostly Cloudy SCT100 BKN250 80 78     94%   86 29.98 29.98      
Jul 07 23:53 SW 7 10 Mostly Cloudy FEW100 BKN250 81 78     91%   89 29.99 29.99      
Jul 07 22:53 SW 7 10 Mostly Clear FEW250 83 77     82%   92 30 29.99      
Jul 07 21:53 SW 7 10 Mostly Clear FEW250 83 77     82%   92 29.99 29.98      
Jul 07 20:53 SW 3 10 Partly Cloudy FEW065 SCT250 85 76     75%   94 29.99 29.98      
Jul 07 19:53 SW 5 10 Mostly Clear FEW065 FEW250 89 72     57%   96 29.97 29.97      
Jul 07 17:53 NW 5 10 Mostly Clear FEW055 93 71     49%   100 29.97 29.96      
Jul 07 15:53 SW 7 10 Mostly Clear FEW045 92 70     49%   98 29.99 29.99      
Jul 07 14:53 NW 9 10 Partly Cloudy SCT045 93 73     52%   102 30.01 30.01      
Jul 07 13:53 7 10 Partly Cloudy SCT045 92 73     54%   101 30.03 30.03      
Jul 07 12:53 NW 9 10 Mostly Cloudy SCT045 BKN250 91 71     52%   98 30.06 30.06      
Jul 07 11:53 NW 3 10 Mostly Cloudy BKN035 BKN250 88 75     66%   98 30.07 30.07      
Jul 07 10:53 5 10 Mostly Clear FEW030 FEW250 86 77     75%   97 30.08 30.08      
Jul 07 09:53 NNW 5 10 Clear CLR 85 75     72%   93 30.08 30.08      
Jul 07 07:53 Calm 10 Mostly Clear FEW250 76 75     97%   78 30.08 30.07      
Jul 07 06:53 SW 5 10 Mostly Clear FEW010 FEW250 73 73     100%   75 30.07 30.06      
Jul 07 05:53 W 3 10 Mostly Clear FEW050 72 72     100%   74 30.07 30.06      
Jul 07 04:53 SW 3 10 Clear CLR 72 72     100%   74 30.05 30.04      
Jul 07 03:53 SW 3 10 Mostly Clear FEW090 73 73     100%   75 30.04 30.04      
Jul 07 02:53 WSW 3 10 Clear CLR 73 73     100%   75 30.04 30.04      
Jul 07 01:53 W 3 10 Clear CLR 73 73     100%   75 30.04 30.04      
Jul 07 00:53 WSW 3 10 Mostly Cloudy FEW070 BKN250 73 73     100%   75 30.04 30.04     1
Jul 06 23:53 Calm 10 Cloudy OVC070 74 74     100%   76 30.05 30.05 0    
Jul 06 22:53 WSW 7 10 Light Rain FEW055 BKN070 OVC100 74 74     100%   76 30.06 30.06 0    
Jul 06 22:46 SW 7 7 Light Rain SCT060 BKN075 OVC100 75 74     96%   77 30.06   0    
Jul 06 22:28   3 Thunderstorms and Rain and Fog/Mist FEW033 SCT047 OVC060 75 75     100%   77 30.07   0    
Jul 06 22:07   7 Thunderstorms and Rain SCT019 BKN047 OVC065 76 75     97%   78 30.08   0    
Jul 06 22:00 NNW 7 3 Thunderstorms and Rain and Fog/Mist FEW017 BKN027 OVC065 76 75     97%   78 30.08   0    
Jul 06 21:55 WSW 8 3 Thunderstorms and Heavy Rain and Fog/Mist SCT020 BKN027 OVC065 77 75     94%   79 30.06   0    
Jul 06 21:53 SSW 9 0.75 Thunderstorms and Heavy Rain and Fog/Mist SCT016 BKN027 OVC060 76 75     97%   78 30.06 30.06 1 1  
Jul 06 21:41 NE 6 0.75 Heavy Rain and Fog/Mist BKN027 OVC080 77 76     96%   79 30.06   0    
Jul 06 21:36 NNE 5 1 Thunderstorms and Heavy Rain and Fog/Mist BKN027 OVC080 77 77     100%   79 30.05   0    
Jul 06 21:32 E 5 3 Thunderstorms and Rain and Fog/Mist BKN027 OVC080 78 77     96%   81 30.05   0    
Jul 06 21:24 ESE 8 4 Light Rain and Fog/Mist SCT036 BKN060 OVC085 77 77     100%   79 30.04   0    
Jul 06 20:53 ESE 7 10 Mostly Cloudy FEW028 FEW045 BKN095 BKN250 78 76     93%   80 30.03 30.03 0    
Jul 06 20:51 ESE 6 10 Mostly Cloudy FEW028 FEW045 BKN095 BKN250 79 75     89%   82 30.03   0    
Jul 06 20:30 E 6 10 Thunderstorms and Rain FEW028 BKN045 OVC095 79 76     90%   83 30.02   0    
Jul 06 19:53 SW 8 10 Thunderstorms SCT040 SCT100 BKN250 84 76     77%   93 30.02 30.02      
Jul 06 19:08 WSW 10 10 Thunderstorms SCT040 SCT100 BKN250 85 76     75%   94 29.99        
Jul 06 18:53 WSW 10 10 Mostly Cloudy SCT040 SCT100 BKN250 85 76     75%   94 30 30      
Jul 06 17:53 SW 11 10 Mostly Cloudy SCT039 SCT100 BKN250 85 76     75%   94 30.01 30      
Jul 06 17:37 SW 9 10 Mostly Cloudy SCT039 SCT100 BKN250 85 75     72%   93 30.01        
Jul 06 16:53 WSW 6 10 Thunderstorms SCT042 SCT100 BKN250 87 75     68%   97 30 30      
Jul 06 16:50 SW 8 10 Mostly Cloudy SCT042 SCT100 BKN250 88 75     66%   98 30        
Jul 06 15:53 SW 10 10 Mostly Cloudy FEW042 SCT050 BKN065 BKN250 89 76     65%   100 30.01 30.01      
Jul 06 14:53   10 Mostly Cloudy SCT035 BKN050 BKN250 90 76     64%   102 30.03 30.03      
Jul 06 13:53 SW 7 10 Mostly Cloudy SCT035 BKN050 BKN250 89 74     61%   98 30.05 30.05      
Jul 05 17:53 SW 10 10 Mostly Cloudy BKN035 BKN250 83 73     72%   89 30 29.99      
Jul 05 16:53   10 Mostly Cloudy BKN035 84 72     67%   90 30.01 30.01      
Jul 05 15:53 S 10 10 Mostly Cloudy SCT030 BKN250 84 72     67%   90 30.01 30.01      
Jul 05 14:53 SSW 7 10 Mostly Cloudy SCT025 BKN250 80 72     76%   84 30.03 30.03      
Jul 05 13:53 3 10 Mostly Cloudy FEW020 SCT100 BKN250 79 70     74%   82 30.03 30.03      
Jul 05 12:53 3 10 Mostly Cloudy FEW018 SCT050 BKN250 76 70     82%   77 30.03 30.03 0   0
Jul 05 12:09 SW 8 10 Cloudy FEW015 SCT025 BKN070 OVC250 73 71     94%   74 30.05   0    
Jul 05 11:53 WSW 9 10 Light Rain SCT012 BKN024 OVC070 72 71     97%   73 30.06 30.06 0    
Jul 05 11:27 WSW 11 10 Cloudy BKN012 OVC025 72 71     97%   73 30.09   0    
Jul 05 10:53 SW 9 7 Cloudy BKN009 BKN050 OVC130 73 73     100%   75 30.09 30.09 0    
Jul 05 10:27 SW 6 10 Light Rain SCT008 BKN050 OVC130 73 73     100%   75 30.07   0    
Jul 05 09:53 SW 8 10 Light Rain BKN009 BKN050 OVC110 73 72     96%   75 30.05 30.05 0 0  
Jul 05 09:18 SW 9 10 Cloudy FEW005 SCT050 BKN090 OVC150 72 72     100%   74 30.05   0    
Jul 05 08:53 S 5 7 Light Rain FEW015 SCT035 BKN090 OVC150 72 72     100%   74 30.03 30.03 0    
Jul 05 08:05 SSW 7 5 Light Rain and Fog/Mist FEW015 SCT035 BKN090 OVC130 71 71     100%   73 30.04   0    
Jul 05 07:53 S 10 5 Thunderstorms and Rain and Fog/Mist FEW015 SCT035 BKN090 OVC130 71 71     100%   73 30.05 30.05 0    
Jul 05 07:04 SW 9 3 Thunderstorms and Rain and Fog/Mist BKN030 BKN090 OVC110 71 71     100%   73 30.04   0    
Jul 05 07:01 SW 11 1.5 Thunderstorms and Heavy Rain and Fog/Mist BKN030 BKN090 OVC110 72 71     97%   73 30.04   0    
Jul 05 06:53 WSW 10 4 Thunderstorms and Rain and Fog/Mist FEW012 BKN028 OVC090 73 72     96%   75 30.03 30.02 1   1
Jul 05 06:27   4 Thunderstorms and Rain and Fog/Mist FEW012 BKN025 OVC042 73 73     100%   75 30.03   1    
Jul 05 06:19   1.5 Thunderstorms and Rain and Fog/Mist FEW012 BKN025 OVC042 73 73     100%   75 30.02   0    
Jul 05 06:11 W 8 0.75 Thunderstorms and Heavy Rain and Fog/Mist FEW009 BKN020 OVC028 75 74     96%   77 30.02   0    
Jul 05 06:06   2 Thunderstorms and Rain and Fog/Mist FEW009 SCT020 OVC038 74 74     100%   76 30.02   0    
Jul 05 06:03   3 Thunderstorms and Rain and Fog/Mist FEW009 SCT020 OVC038 75 75     100%   77 30.02   0    
Jul 05 05:53 SSW 6 7 Thunderstorms SCT030 BKN090 BKN150 BKN250 74 74     100%   76 30.01 30.01      
Jul 05 05:46 S 3 7 Thunderstorms SCT030 BKN090 BKN150 BKN250 74 74     100%   76 29.99        
Jul 05 04:53 SSW 5 4 Fog/Mist SCT003 SCT250 74 74     100%   76 29.99 29.98      
Jul 05 04:24 Calm 4 Fog/Mist SCT003 73 73     100%   75 29.97        
Jul 05 03:53 SE 3 7 Mostly Cloudy FEW150 BKN250 74 74     100%   76 29.97 29.97      
Jul 05 02:53 S 3 7 Mostly Cloudy SCT150 BKN250 75 75     100%   77 29.97 29.97      
Jul 05 01:53 Calm 7 Cloudy BKN150 OVC250 75 75     100%   77 29.99 29.98      
Jul 05 00:53 S 5 7 Mostly Cloudy FEW003 BKN120 76 76     100%   78 29.99 29.99      
Jul 04 23:53 Calm 10 Mostly Clear FEW055 FEW250 76 76     100%   78 30 30      
Jul 04 22:53 ESE 3 10 Mostly Clear FEW055 FEW250 76 76     100%   78 29.99 29.99      
Jul 04 21:53 NE 5 10 Partly Cloudy FEW045 SCT250 75 75     100%   77 29.97 29.97      
Jul 04 20:53 E 5 10 Partly Cloudy FEW045 SCT250 78 76     93%   80 29.95 29.95      
Jul 04 19:53 SSW 8 10 Partly Cloudy FEW045 SCT250 82 74     77%   88 29.94 29.94      
Jul 04 18:53 SSW 13 10 Mostly Cloudy SCT045 BKN250 86 76     72%   96 29.94 29.93     0
Jul 04 17:53 SW 14 10 Clear   86 75     70%   95 29.92 29.92      
Jul 04 16:53 SW 13 10 Mostly Cloudy SCT040 BKN100 BKN250 88 75     66%   98 29.93 29.92      
Jul 04 16:44   10 Mostly Cloudy SCT040 BKN100 BKN250 88 76     68%   99 29.93        
Jul 04 16:24 3 10 Thunderstorms BKN040 BKN100 BKN250 86 79     80%   100 29.94        
Jul 04 15:53 Calm 10 Thunderstorms BKN040 BKN250 86 77     75%   97 29.94 29.94 0 0  
Jul 04 15:50 Calm 10 Thunderstorms BKN040 BKN250 86 77     75%   97 29.95   0    
Jul 04 15:12 SE 7 10 Mostly Cloudy FEW020 SCT035 BKN100 BKN250 83 77     82%   92 29.95   0    
Jul 04 14:53 SSE 11 7 Thunderstorms and Rain FEW015 BKN028 BKN100 BKN250 79 77     94%   83 29.95 29.94 0    
Jul 04 14:44 S 14 4 Thunderstorms and Rain and Fog/Mist FEW015 BKN028 BKN100 BKN250 80 77     90%   86 29.95   0    
Jul 04 14:18 SSW 11 10 Thunderstorms FEW015 SCT030 BKN100 BKN250 85 77     77%   95 29.96        
Jul 04 14:07 SSW 13 10 Mostly Cloudy FEW015 SCT030 BKN100 BKN250 85 78     80%   97 29.96        
Jul 04 13:53 SSW 15 7 Thunderstorms SCT030 BKN100 BKN250 86 80     83%   101 29.96 29.96 0    
Notice The following observation data may not be complete
Jul 04 13:27   5 Thunderstorms and Rain and Fog/Mist FEW015 SCT028 BKN080 BKN250          %         0    
Jul 04 12:53 S 11 10 Thunderstorms BKN028 BKN080 BKN250 87 77     72%   99 29.97 29.96      
Jul 04 12:38   10 Thunderstorms SCT028 BKN080 BKN250 88 77     70%   100 29.97        
Jul 04 11:53 SSE 9 10 Mostly Cloudy SCT025 BKN100 BKN250 88 78     73%   102 30 30      
Jul 04 11:48 SSE 10 10 Mostly Cloudy SCT025 BKN100 BKN250 86 79     79%   99 30        
Jul 04 10:53 SSE 6 10 Mostly Cloudy BKN020 BKN250 84 77     80%   94 30.01 30      
Jul 04 10:19 S 5 10 Mostly Cloudy SCT017 BKN250 83 77     82%   92 30        
Jul 04 09:53 SW 7 10 Mostly Cloudy BKN015 BKN250 82 77     85%   90 30 29.99      
Jul 04 09:27 SSW 5 10 Mostly Cloudy BKN015 BKN100 80 76     87%   85 30.01        
Jul 04 08:53 SSE 5 10 Mostly Cloudy FEW014 SCT100 BKN250 78 76     93%   80 30.01 30      
Jul 04 07:53 SSE 5 10 Mostly Cloudy SCT035 BKN090 BKN250 75 74     96%   77 30.01 30.01      
Jul 04 06:53 ESE 5 10 Mostly Cloudy FEW032 SCT055 BKN090 BKN250 74 73     97%   76 30 29.99      
Jul 04 05:53 Calm 10 Mostly Cloudy SCT049 BKN090 BKN250 74 71     91%   75 29.99 29.98      
Jul 04 04:53 SE 3 10 Cloudy SCT090 OVC250 74 72     94%   75 29.96 29.96      
Jul 04 04:16 Calm 10 Cloudy SCT075 OVC250 75 73     94%   77 29.97        
Jul 04 03:53 Calm 7 Thunderstorms FEW041 BKN070 OVC250 75 73     94%   77 29.98 29.98      
Jul 04 03:51 Calm 7 Thunderstorms FEW041 BKN070 OVC250 75 73     94%   77 29.98        
Jul 04 02:37 Calm 10 Thunderstorms SCT048 BKN080 76 75     97%   78 29.99        
Jul 04 00:53 Calm 7 Cloudy FEW041 OVC080 76 75     97%   78 30 30      
Jul 03 23:53 Calm 10 Mostly Cloudy SCT041 BKN075 77 75     94%   79 30.01 30      
Jul 03 22:53 Calm 10 Partly Cloudy SCT070 76 75     97%   78 30 30      
Jul 03 21:53 Calm 10 Partly Cloudy SCT060 77 75     94%   79 30 29.99      
Jul 03 20:53 SSW 7 10 Partly Cloudy SCT044 78 75     90%   80 29.98 29.98      
Jul 03 19:53 SSW 7 10 Mostly Cloudy FEW039 SCT048 BKN055 BKN250 80 76     87%   85 29.98 29.98      
Jul 03 18:53 W 6 10 Partly Cloudy SCT060 SCT250 85 72     65%   91 29.97 29.97      
Jul 03 17:53 NW 5 10 Partly Cloudy FEW035 SCT043 SCT050 SCT250 87 74     65%   95 29.97 29.97      
Jul 03 16:53 3 10 Mostly Cloudy FEW033 SCT043 BKN055 BKN250 86 74     67%   94 29.99 29.98      
Jul 03 16:00 NNW 5 10 Mostly Cloudy SCT026 BKN049 BKN250 85 73     68%   92 30        
Jul 03 15:53 SW 5 10 Mostly Cloudy BKN024 BKN049 BKN250 84 73     70%   90 30 30      
Jul 03 14:53 Calm 10 Mostly Cloudy BKN028 BKN130 BKN250 83 73     72%   89 30.01 30      
Jul 03 14:28 Calm 10 Mostly Cloudy BKN025 BKN130 BKN250 82 73     74%   87 30.01        
Jul 03 12:53 WSW 8 10 Mostly Cloudy FEW013 BKN100 BKN250 79 73     82%   82 30.05 30.04     0
Jul 03 11:53 WSW 6 7 Cloudy SCT010 OVC050 75 73     94%   77 30.06 30.06 0    
Jul 03 10:53 Calm 6 Rain and Fog/Mist FEW008 BKN040 OVC090 73 72     96%   75 30.07 30.06 0    
Jul 03 10:36   3 Heavy Rain and Fog/Mist FEW008 BKN035 OVC070 72 71     97%   73 30.07   0    
Jul 03 10:24 WNW 6 2 Heavy Rain and Fog/Mist SCT008 BKN030 OVC080 73 72     96%   75 30.08   0    
Jul 03 10:19 W 7 3 Light Rain and Fog/Mist SCT008 BKN030 OVC080 73 72     96%   75 30.08   0    
Jul 03 09:53 SSW 6 7 Cloudy SCT007 BKN035 OVC080 73 73     100%   75 30.07 30.07 0 0  
Jul 03 09:11 SSW 9 7 Cloudy SCT008 BKN020 OVC080 72 72     100%   74 30.07   0    
Jul 03 08:53 SSW 6 7 Light Rain BKN008 BKN015 OVC022 72 72     100%   74 30.07 30.07 0    
Jul 03 08:20 SSW 11 7 Cloudy BKN007 OVC025 72 72     100%   74 30.08        
Jul 03 08:11 SW 8 7 Cloudy SCT007 BKN025 BKN050 OVC130 72 72     100%   74 30.06        
Jul 03 07:53 SSE 5 7 Cloudy SCT007 BKN050 OVC110 71 71     100%   73 30.03 30.03 0    
Jul 03 07:25 W 5 4 Light Rain and Fog/Mist SCT009 SCT050 OVC110 71 71     100%   73 30.03   0    
Jul 03 07:22 W 5 2.5 Rain and Fog/Mist SCT009 SCT050 OVC110 71 71     100%   73 30.03   0    
Jul 03 07:05 W 5 10 Light Rain SCT009 SCT050 OVC110 71 71     100%   73 30.02   0    
Jul 03 06:53 Calm 10 Cloudy BKN009 OVC110 71 71     100%   73 30.01 30.01 0   0
Jul 03 06:32 SW 5 10 Cloudy OVC009 70 70     100%     30.01   0    
Jul 03 06:16 SSW 7 10 Light Rain BKN013 OVC110 70 70     100%     30.01   0    
Jul 03 06:07 SW 5 10 Light Rain BKN015 OVC110 70 70     100%     30.01   0    
Jul 03 05:53 SW 3 10 Light Rain SCT010 OVC100 70 70     100%     30 30 0    
Jul 03 05:20 WSW 8 10 Light Rain SCT010 BKN120 OVC250 70 70     100%     30   0    
Jul 03 04:53 SE 13 7 Thunderstorms and Rain SCT055 OVC120 70 70     100%     29.98 29.97 0    
Jul 03 04:10 SSE 10 3 Thunderstorms and Rain and Fog/Mist SCT015 OVC055 71 70     96%   72 30.01   0    
Jul 03 04:05   2 Thunderstorms and Rain and Squalls BKN015 OVC055 72 70     93%   73 30.03   0    
Jul 03 03:58   2 Thunderstorms and Rain and Squalls SCT015 OVC055 74 71     91%   75     0    
Jul 03 03:53   7 Thunderstorms and Rain BKN055 OVC120 77 75     94%   79 30.04 30.03 0 0  
Jul 03 03:48 SW 9 10 Thunderstorms BKN055 OVC120 75 75     100%   77 30        
Jul 03 03:45 Calm 10 Mostly Cloudy FEW049 BKN095 76 75     97%   78 30        
Jul 03 02:53 S 8 10 Cloudy BKN060 OVC100 76 75     97%   78 30 29.99      
Jul 03 01:53 SSE 8 10 Cloudy SCT060 OVC250 76 76     100%   78 30.01 30.01      
Jul 03 00:53 S 10 10 Cloudy FEW055 OVC250 77 76     96%   79 30.02 30.01      
Jul 02 23:53 S 10 10 Mostly Cloudy FEW055 BKN250 78 76     93%   80 30.04 30.03      
Jul 02 22:53 S 7 10 Mostly Cloudy BKN250 78 76     93%   80 30.04 30.03      
Jul 02 21:53 SSE 5 10 Mostly Cloudy BKN250 79 77     94%   83 30.03 30.03      
Jul 02 20:53 S 3 10 Mostly Cloudy FEW035 BKN250 81 77     88%   88 30.03 30.03      
Jul 02 19:53 S 6 10 Mostly Cloudy FEW035 BKN250 83 77     82%   92 30.03 30.02      
Jul 02 18:53 S 9 10 Mostly Cloudy SCT035 BKN250 86 76     72%   96 30.02 30.02      
Jul 02 17:53 SW 9 10 Mostly Cloudy SCT035 BKN250 88 75     66%   98 30.02 30.02      
Jul 02 16:53 S 8 10 Mostly Cloudy SCT035 BKN250 88 76     68%   99 30.04 30.04      
Jul 02 15:53 WSW 8 10 Mostly Cloudy SCT030 BKN250 88 76     68%   99 30.08 30.07      
Jul 02 14:53 SW 9 10 Mostly Cloudy SCT030 BKN250 86 75     70%   95 30.1 30.1      
Jul 02 13:53   10 Mostly Cloudy FEW024 SCT030 BKN250 85 75     72%   93 30.11 30.11      
Jul 02 12:53 SW 11 10 Mostly Cloudy SCT024 SCT030 BKN250 85 75     72%   93 30.13 30.12      
Jul 02 11:53 SW 11 10 Partly Cloudy SCT022 SCT250 84 74     72%   91 30.14 30.14      
Jul 02 11:05 WSW 10 10 Mostly Cloudy SCT020 BKN250 83 74     74%   89 30.15        
Jul 02 10:53   10 Mostly Cloudy BKN018 BKN250 82 74     77%   88 30.15 30.14      
Jul 02 09:53 WSW 7 10 Partly Cloudy SCT012 SCT250 78 73     85%   80 30.15 30.15      
Jul 02 09:39 WSW 9 10 Partly Cloudy SCT012 76 72     88%   77 30.15        
Jul 02 09:24 WSW 7 10 Mostly Cloudy SCT009 BKN014 76 72     88%   77 30.15        
Jul 02 08:53 WSW 9 10 Mostly Cloudy BKN007 73 72     96%   75 30.15 30.15      
Jul 02 07:53 WSW 9 10 Cloudy OVC005 70 70     100%     30.14 30.14      
Jul 02 07:21 SW 8 10 Mostly Cloudy BKN005 69 69     100%     30.13        
Jul 02 06:53 SW 6 10 Partly Cloudy SCT005 SCT120 69 69     100%     30.12 30.11      
Jul 02 05:53 SW 5 10 Partly Cloudy SCT005 68 68     100%     30.09 30.09      
Jul 02 04:53 SSW 5 7 Cloudy OVC005 68 68     100%     30.08 30.07      
Jul 02 03:53 SW 7 4 Fog/Mist OVC004 69 69     100%     30.07 30.06      
Jul 02 02:53 SW 8 2.5 Fog/Mist OVC004 69 69     100%     30.06 30.06      
Jul 02 02:35 WSW 7 4 Fog/Mist BKN006 BKN250 69 69     100%     30.06        
Jul 02 01:53 SSW 7 10 Mostly Cloudy SCT008 BKN250 69 69     100%     30.07 30.07      
Jul 02 00:53 SW 5 10 Mostly Cloudy BKN008 BKN250 69 69     100%     30.08 30.07     0
Jul 02 00:37 SW 6 10 Mostly Cloudy SCT009 BKN250 69 69     100%     30.07        
Jul 01 23:53 5 10 Mostly Cloudy FEW014 SCT110 BKN250 69 69     100%     30.08 30.08      
Jul 01 22:53 SW 8 10 Mostly Cloudy FEW014 SCT110 BKN250 69 69     100%     30.08 30.09      
Jul 01 21:53 SSW 8 10 Mostly Cloudy FEW015 SCT110 BKN250 69 69     100%     30.07 30.07   0  
Jul 01 20:53 SW 5 10 Mostly Cloudy FEW040 SCT140 BKN250 71 70     96%   72 30.04 30.03 0    
Jul 01 19:53 SSW 5 7 Light Rain FEW049 BKN110 BKN250 72 69     91%   73 30.06 30.06 0    
Jul 01 19:46 Calm 7 Light Rain FEW049 BKN110 BKN250 72 70     93%   73 30.07   0    
Jul 01 19:29 S 8 10 Thunderstorms SCT049 BKN110 OVC250 72 70     93%   73 30.06        
Jul 01 18:53   7 Thunderstorms FEW030 BKN049 BKN100 OVC250 75 68     79%   76 30.05 30.05      
Jul 01 18:39   10 Thunderstorms and Squalls BKN049 BKN100 BKN250 82 71     69%   86 30.05        
Jul 01 17:53 SSW 7 10 Mostly Cloudy SCT055 SCT120 BKN250 89 71     55%   95 30.02 30.01      
Jul 01 16:53 SW 8 10 Partly Cloudy SCT050 SCT100 SCT250 90 71     54%   96 30.01 30.01      
Jul 01 15:53 SW 3 10 Partly Cloudy SCT050 SCT100 SCT250 90 70     52%   95 30.01 30.01      
Jul 01 14:53 S 5 10 Mostly Cloudy SCT045 SCT100 BKN200 89 70     53%   94 30.04 30.03      
Jul 01 13:53 SW 9 10 Mostly Cloudy SCT040 SCT120 BKN250 88 68     52%   92 30.05 30.05      
Jul 01 12:53 5 10 Mostly Cloudy FEW040 FEW150 BKN250 88 67     50%   91 30.07 30.06     0
Jul 01 11:53 SW 9 10 Mostly Cloudy FEW040 SCT120 BKN250 85 70     61%   89 30.09 30.08      
Jul 01 10:53 SW 5 10 Mostly Cloudy FEW040 BKN110 BKN200 78 72     82%   79 30.09 30.09      
Jul 01 09:53 S 11 10 Mostly Cloudy FEW030 BKN110 BKN200 77 72     84%   78 30.09 30.09   0  
Jul 01 07:53 NW 8 10 Cloudy SCT009 OVC110 70 70     100%     30.06 30.06 0    
Jul 01 07:17 S 9 10 Cloudy SCT009 OVC110 69 69     100%     30.03   0    
Jul 01 07:08 S 11 10 Cloudy FEW009 OVC110 70 70     100%     30.01   0    
Jul 01 06:53 ESE 9 10 Light Rain FEW070 OVC110 69 69     100%     30 29.99 0   0
Jul 01 05:53 WSW 7 10 Cloudy BKN120 OVC250 69 69     100%     30.05 30.04      
Jul 01 04:53 WSW 7 10 Mostly Cloudy BKN250 69 68     96%     30 30      
Jul 01 03:53 W 9 10 Cloudy SCT120 OVC250 68 68     100%     29.99 29.99   0  
Jul 01 02:16   10 Light Rain FEW042 BKN120 OVC250 69 69     100%     29.96   0    
Jul 01 01:53 ESE 7 10 Thunderstorms and Rain SCT042 OVC100 69 69     100%     30 30 0    
Jul 01 01:26 SW 5 10 Thunderstorms BKN042 OVC100 69 68     96%     30.02   0    
Jul 01 00:53 WNW 15 5 Thunderstorms and Rain and Fog/Mist BKN042 OVC100 69 67     93%     30.06 30.06 0   0
Jul 01 00:40   3 Thunderstorms and Rain and Squalls SCT025 OVC042 70 67     90%     30.08   0    
Jul 01 00:35   5 Thunderstorms and Rain and Squalls SCT042 OVC100 72 66     82%   73 30.09   0    
Jul 01 00:25   7 Thunderstorms and Rain SCT042 OVC100 76 74     94%   78 30.08   0    
Jul 01 00:00 SSW 3 7 Thunderstorms and Rain SCT042 BKN100 OVC250 76 74     94%   78 30.03   0    
Jun 30 23:53 SW 5 10 Thunderstorms SCT042 BKN100 OVC250 76 73     91%   77 30.02 30.02      
Jun 30 23:47 S 3 10 Thunderstorms SCT042 BKN100 OVC250 75 73     94%   77 30.03        
Jun 30 21:53 ENE 9 10 Cloudy OVC041 79 74     85%   83 29.98 29.98      
Jun 30 20:53 Calm 10 Partly Cloudy SCT040 SCT250 80 75     85%   85 29.94 29.94      
Jun 30 19:53 S 6 10 Mostly Clear FEW040 FEW250 83 73     72%   89 29.92 29.92      
Jun 30 18:53 S 3 10 Mostly Clear FEW040 FEW250 85 73     68%   92 29.91 29.91      
Jun 30 17:53   10 Mostly Clear FEW170 FEW250 87 72     61%   94 29.88 29.88      
Jun 30 16:53   10 Mostly Cloudy BKN110 BKN250 87 72     61%   94 29.87 29.86      
Jun 30 15:53 S 13 10 Mostly Cloudy SCT110 BKN250 85 71     63%   90 29.91 29.91      
Jun 30 14:53 S 10 10 Mostly Cloudy FEW050 SCT110 BKN250 81 72     74%   85 29.93 29.93      
Jun 30 13:53 S 6 10 Mostly Cloudy FEW045 SCT100 BKN250 80 70     71%   83 29.99 29.98      
Jun 30 12:53 NNW 5 10 Mostly Cloudy SCT045 BKN090 BKN250 79 69     72%   80 30.03 30.03     0
Jun 30 11:53 NNW 9 10 Cloudy FEW035 BKN055 OVC080 75 69     82%   76 30.05 30.05 0    
Jun 30 10:53 NNW 10 10 Light Rain FEW020 BKN050 BKN080 75 71     88%   76 30.04 30.04 0    
Notice The following observation data may not be complete
Jun 30 10:27 N 13 4 Rain and Fog/Mist SCT017 BKN032 OVC080   68      %     30.04   0    
Jun 30 10:10   10 Cloudy BKN014 OVC050 77 70     79%   78 30.02        
Jun 30 09:53 WSW 11 10 Cloudy OVC015 81 76     85%   87 29.99 29.99   0  
Jun 30 09:36 SSW 13 10 Mostly Cloudy SCT010 SCT035 BKN090 BKN250 80 77     90%   86 29.97        
Jun 30 08:53 SSW 13 5 Fog/Mist SCT008 BKN024 BKN250 79 77     94%   83 29.97 29.97 0    
Jun 30 08:30 SSW 8 3 Fog/Mist FEW008 SCT012 OVC020 78 77     96%   81 29.97   0    
Jun 30 07:53 S 5 3 Fog/Mist SCT008 OVC012 77 77     100%   79 29.97 29.97 0    
Jun 30 07:46 S 5 3 Light Drizzle and Fog/Mist SCT008 OVC012 77 77     100%   79 29.97   0    
Jun 30 07:23 Calm 3 Light Drizzle and Fog/Mist BKN010 OVC015 77 77     100%   79 29.97   0    
Jun 30 07:14 SSE 3 7 Light Drizzle BKN010 OVC015 77 77     100%   79 29.96   0    
Jun 30 06:53 S 6 7 Cloudy BKN010 OVC018 77 77     100%   79 29.95 29.95      
Jun 30 06:13 SSE 6 10 Cloudy BKN010 OVC018 77 76     96%   79 29.94        
Jun 30 05:53 S 3 7 Cloudy BKN008 OVC014 77 76     96%   79 29.94 29.94      
Jun 30 04:53 S 5 7 Cloudy OVC009 76 76     100%   78 29.91 29.91      
Jun 30 03:53 S 9 7 Cloudy OVC006 76 76     100%   78 29.9 29.9      
Jun 30 02:53 S 8 7 Cloudy OVC005 74 74     100%   76 29.88 29.87      
Jun 30 02:26 SSE 11 10 Mostly Cloudy BKN005 74 74     100%   76 29.87        
Jun 30 01:53 S 8 10 Mostly Cloudy BKN055 74 74     100%   76 29.89 29.88      
Jun 30 00:53 S 7 10 Clear CLR 74 74     100%   76 29.92 29.91      
Jun 29 23:53 S 5 10 Clear CLR 75 74     96%   77 29.91 29.91      
Jun 29 22:53 SSE 5 10 Clear CLR 75 74     96%   77 29.89 29.89      
Jun 29 21:53 SSE 5 10 Clear CLR 76 74     94%   78 29.88 29.88      
Jun 29 20:53 S 6 10 Mostly Clear FEW060 79 73     82%   82 29.87 29.87      
Jun 29 19:53 S 8 10 Mostly Clear FEW043 FEW060 82 73     74%   87 29.86 29.86      
Jun 29 18:53 S 11 10 Partly Cloudy FEW043 SCT060 SCT110 85 72     65%   91 29.87 29.87      
Jun 29 17:53 SE 11 10 Partly Cloudy SCT043 SCT060 86 72     63%   92 29.89 29.88      
Jun 29 16:53 S 10 10 Mostly Cloudy BKN042 BKN060 87 71     59%   93 29.9 29.9      
Jun 29 15:53 SSE 8 10 Mostly Cloudy BKN042 BKN060 84 72     67%   90 29.91 29.91      
Jun 29 14:53 SE 9 10 Mostly Cloudy FEW020 BKN035 BKN050 83 72     70%   88 29.92 29.92      
Jun 29 13:53 SE 11 10 Mostly Cloudy FEW020 SCT035 BKN050 85 73     68%   92 29.93 29.93      
Jun 29 12:53 S 10 10 Cloudy SCT020 BKN035 OVC050 81 72     74%   85 29.96 29.95      
Jun 29 12:15 S 7 10 Cloudy SCT020 OVC035 80 72     76%   84 29.97        
Jun 29 11:53 S 8 10 Cloudy BKN018 OVC035 80 72     76%   84 29.97 29.97      
Jun 29 10:53 S 8 10 Cloudy SCT015 OVC025 77 72     84%   78 29.98 29.98      
Jun 29 09:53 SSW 6 10 Cloudy BKN017 OVC025 75 72     90%   76 29.97 29.97      
Jun 29 08:53 S 7 10 Clear   76 72     88%   77 29.96 29.96      
Jun 29 08:33 S 9 10 Cloudy FEW009 BKN015 OVC022 75 72     90%   76 29.96        
Jun 29 07:53 S 9 10 Cloudy FEW007 BKN011 OVC020 73 72     96%   75 29.96 29.95      
Jun 29 07:08 S 9 10 Cloudy FEW007 OVC011 72 72     100%   74 29.96        
Jun 29 06:53 S 9 10 Mostly Cloudy BKN007 72 72     100%   74 29.96 29.96      
Jun 29 06:44 S 7 10 Mostly Cloudy SCT007 BKN012 72 72     100%   74 29.96        
Jun 29 06:09 S 5 10 Partly Cloudy SCT008 71 71     100%   73 29.96        
Jun 29 04:53 SSE 8 10 Partly Cloudy SCT017 71 71     100%   73 29.95 29.95      
Jun 29 03:53 SSE 8 10 Clear CLR 71 71     100%   73 29.94 29.93      
Jun 29 02:53 S 9 10 Clear CLR 72 70     93%   73 29.94 29.93      
Jun 29 01:53 S 8 10 Clear CLR 72 70     93%   73 29.94 29.93      
Jun 29 00:53 SSE 3 10 Clear CLR 73 70     90%   74 29.94 29.94      
Jun 28 23:53 Calm 10 Clear CLR 74 69     85%   75 29.95 29.94      
Jun 28 22:53 SSE 5 10 Clear CLR 75 69     82%   76 29.94 29.93      
Jun 28 21:53 SSE 8 10 Clear CLR 76 68     76%   77 29.93 29.93      
Jun 28 20:53 SSE 7 10 Clear CLR 79 68     69%   80 29.93 29.93      
Jun 28 19:53 SSE 9 10 Mostly Clear FEW050 82 69     65%   85 29.92 29.91      
Jun 28 18:53 SE 13 10 Partly Cloudy SCT050 85 69     59%   89 29.92 29.92      
Jun 28 17:53 SE 11 10 Partly Cloudy SCT050 86 70     59%   91 29.93 29.92      
Jun 28 16:53 SSE 9 10 Partly Cloudy SCT050 87 68     53%   91 29.94 29.94      
Jun 28 15:53 SSE 10 10 Partly Cloudy SCT050 87 69     55%   91 29.96 29.96      
Jun 28 14:53 S 10 10 Mostly Cloudy SCT050 BKN250 87 68     53%   91 29.97 29.97      
Jun 28 13:53 S 9 10 Mostly Cloudy BKN050 BKN250 87 68     53%   91 29.99 29.99      
Jun 28 12:53 S 8 10 Mostly Cloudy BKN050 BKN250 85 67     55%   88 30.02 30.01      
Jun 28 11:53 S 13 10 Mostly Cloudy SCT042 BKN250 85 66     53%   87 30.02 30.01      
Jun 28 10:53 S 10 10 Partly Cloudy FEW050 SCT250 83 67     59%   86 30.03 30.02      
Jun 28 09:53 S 10 10 Mostly Clear FEW250 81 68     65%   84 30.04 30.04      
Jun 28 08:53 S 7 10 Mostly Clear FEW250 76 69     79%   77 30.05 30.04      
Jun 28 07:53 SE 7 10 Mostly Clear FEW250 73 69     87%   74 30.03 30.03      
Jun 28 06:53 Calm 10 Mostly Clear FEW050 FEW250 69 69     100%     30.02 30.02      
Jun 28 05:53 Calm 10 Partly Cloudy SCT055 SCT250 69 68     96%     30.03 30.02      
Jun 28 04:53 Calm 10 Mostly Cloudy BKN050 68 68     100%     30 30      
Jun 28 03:53 SSE 3 10 Clear CLR 67 67     100%     30 30      
Jun 28 02:53 Calm 10 Clear CLR 67 67     100%     30.02 30.02      
Jun 28 01:53 Calm 10 Mostly Clear FEW250 70 67     90%     30.02 30.02      
Jun 28 00:53 SSE 3 10 Mostly Clear FEW250 69 67     93%     30.02 30.02      
Jun 27 23:53 SSE 3 10 Mostly Clear FEW250 71 67     87%   72 30.03 30.03      
Jun 27 22:53 SSE 3 10 Mostly Clear FEW250 72 67     84%   73 30.04 30.03      
Jun 27 21:53 SE 5 10 Partly Cloudy SCT250 73 67     81%   74 30.03 30.03      
Jun 27 20:53 SE 5 10 Partly Cloudy SCT250 76 65     69%   76 30.01 30.01      
Jun 27 19:53 SSE 6 10 Mostly Cloudy FEW050 BKN250 80 64     58%   82 30.01 30.01      
Jun 27 18:53 SSE 8 10 Mostly Cloudy SCT050 BKN250 82 63     53%   83 30.01 30.01      
Jun 27 17:53 SSE 7 10 Mostly Cloudy SCT050 BKN250 82 63     53%   83 30.02 30.01      
Jun 27 16:53 ESE 8 10 Mostly Cloudy SCT050 BKN250 84 65     53%   86 30.03 30.03      
Jun 27 15:53 E 9 10 Mostly Cloudy SCT045 BKN250 83 64     53%   84 30.04 30.04      
Jun 27 14:53 ESE 8 10 Mostly Cloudy SCT042 BKN250 83 64     53%   84 30.06 30.06      
Jun 27 13:53 ENE 7 10 Partly Cloudy SCT040 SCT250 82 64     55%   84 30.07 30.07      
Jun 27 12:53 E 9 10 Partly Cloudy FEW035 SCT250 81 64     56%   83 30.08 30.08      
Jun 27 11:53 E 7 10 Mostly Clear FEW035 FEW250 79 63     58%   79 30.1 30.1      
Jun 27 09:53 ENE 7 10 Mostly Clear FEW250 74 66     76%   75 30.12 30.12      
Jun 27 08:53 E 8 10 Mostly Clear FEW120 70 65     84%     30.13 30.13      
Jun 27 07:53 ENE 8 10 Mostly Cloudy BKN120 BKN250 65 64     97%     30.12 30.12      
Jun 27 06:53 NE 7 10 Mostly Cloudy FEW070 BKN100 BKN250 64 63     96%     30.12 30.12      
Jun 27 05:53 NE 7 10 Mostly Cloudy BKN100 BKN250 63 63     100%     30.11 30.11      
Jun 27 04:53 Calm 10 Partly Cloudy FEW120 SCT250 63 63     100%     30.09 30.09      
Jun 27 03:53 NE 5 10 Partly Cloudy FEW120 SCT250 65 64     97%     30.07 30.07      
Jun 27 01:53 WSW 5 10 Mostly Cloudy SCT120 BKN250 67 65     93%     30.07 30.07      
Jun 27 00:53 Calm 10 Mostly Cloudy FEW040 BKN120 BKN250 70 66     87%     30.09 30.08      
Jun 26 23:53 Calm 10 Partly Cloudy FEW040 SCT120 69 66     90%     30.09 30.08      
Jun 26 22:53 S 3 10 Partly Cloudy SCT120 72 65     79%   73 30.09 30.09      
Jun 26 20:53 SSE 3 10 Mostly Cloudy SCT150 BKN250 73 65     76%   74 30.08 30.08      
Jun 26 19:53 SSE 5 10 Mostly Cloudy FEW040 BKN250 78 63     60%   78 30.07 30.07      
Jun 26 18:53 SSE 5 10 Mostly Cloudy FEW040 BKN250 80 61     52%   81 30.07 30.07      
Jun 26 17:53 SE 6 10 Mostly Cloudy SCT040 BKN250 81 61     51%   82 30.07 30.07      
Jun 26 16:53 6 10 Mostly Cloudy FEW040 BKN250 81 62     53%   82 30.09 30.09      
Jun 26 15:53 SSE 8 10 Mostly Cloudy FEW040 BKN250 82 59     46%   82 30.11 30.11      
Jun 26 14:53 ESE 3 10 Mostly Cloudy FEW040 BKN250 83 59     44%   83 30.12 30.12      
Jun 26 13:53 S 7 10 Mostly Cloudy FEW040 FEW100 BKN250 82 62     51%   83 30.15 30.14      
Jun 26 12:53 E 7 10 Mostly Cloudy FEW040 FEW100 BKN250 83 61     48%   83 30.17 30.17      
Jun 26 11:53 E 6 10 Mostly Cloudy FEW035 SCT110 BKN250 82 60     47%   82 30.2 30.2      
Jun 26 10:53 NE 6 10 Mostly Cloudy FEW110 BKN250 80 60     51%   81 30.21 30.21      
Jun 26 09:53 NNE 6 10 Partly Cloudy FEW110 SCT250 79 64     60%   79 30.21 30.21      
Jun 26 08:53 NE 3 10 Mostly Cloudy BKN120 BKN250 73 65     76%   74 30.21 30.21      
Jun 26 07:53 Calm 10 Mostly Cloudy BKN120 71 67     87%   72 30.19 30.19      
Jun 26 06:53 Calm 10 Cloudy OVC120 69 65     87%     30.19 30.19     0
Jun 26 05:53 N 6 10 Cloudy OVC120 68 66     93%     30.2 30.19      
Jun 26 04:53 WSW 3 10 Cloudy FEW045 OVC120 67 64     90%     30.19 30.19 0    
Jun 26 03:53 SSW 5 10 Cloudy OVC120 67 65     93%     30.19 30.19 0 0  
Jun 26 02:53 SW 5 10 Cloudy OVC120 66 65     96%     30.19 30.19      
Jun 26 01:53 Calm 10 Cloudy OVC120 68 64     87%     30.19 30.19      
Jun 26 00:53 WSW 5 10 Mostly Cloudy BKN120 66 64     93%     30.2 30.2      
Jun 25 23:53 Calm 10 Partly Cloudy SCT120 68 63     84%     30.19 30.19      
Jun 25 22:53 S 3 10 Clear   67 62     84%     30.2 30.2      
Jun 25 21:53 Calm 10 Mostly Clear FEW150 72 62     71%   72 30.19 30.19      
Jun 25 20:53 SE 3 10 Mostly Clear FEW150 72 62     71%   72 30.17 30.17      
Jun 25 19:53 ENE 7 10 Partly Cloudy FEW100 SCT200 78 56     47%   78 30.17 30.17      
Jun 25 18:53 E 7 10 Mostly Clear FEW100 FEW200 81 54     39%   81 30.18 30.18      
Jun 25 17:53 ESE 6 10 Mostly Clear FEW100 FEW250 83 54     37%   82 30.17 30.17      
Jun 25 16:53 E 8 10 Mostly Clear FEW100 83 54     37%   82 30.19 30.19      
Jun 25 14:53 ESE 9 10 Mostly Clear FEW060 84 55     37%   83 30.22 30.22      
Jun 25 13:53 NE 6 10 Mostly Clear FEW100 83 58     43%   83 30.24 30.24      
Jun 25 12:53 3 10 Mostly Clear FEW110 82 58     44%   82 30.25 30.25      
Jun 25 11:53 5 10 Mostly Clear FEW120 81 60     49%   82 30.27 30.26      
Jun 25 10:53 ENE 7 10 Mostly Clear FEW010 FEW120 79 62     56%   79 30.27 30.27      
Jun 25 09:53 NE 3 10 Mostly Clear FEW110 77 62     60%   77 30.26 30.26      
Jun 25 08:53 NE 6 10 Partly Cloudy SCT110 75 59     57%   75 30.26 30.26      
Jun 25 07:53 NNW 5 10 Mostly Cloudy BKN110 72 61     68%   72 30.25 30.25      
Jun 25 06:53 NNW 7 10 Mostly Cloudy BKN110 67 62     84%     30.23 30.23      
Jun 25 05:53 Calm 10 Mostly Cloudy BKN110 67 61     81%     30.22 30.22      
Jun 25 04:53 NW 5 10 Mostly Cloudy BKN110 70 59     68%     30.21 30.2      
Jun 25 03:53 NNW 3 10 Mostly Cloudy BKN120 68 61     78%     30.2 30.2      
Jun 25 02:53 Calm 10 Mostly Cloudy BKN120 69 61     75%     30.19 30.19      
Jun 25 01:53 Calm 10 Mostly Cloudy BKN120 69 61     75%     30.2 30.2      
Jun 25 00:53 NNE 6 10 Mostly Cloudy BKN120 70 60     71%     30.19 30.19      
Jun 24 23:53 NE 5 10 Mostly Cloudy BKN120 70 61     73%     30.19 30.19      
Jun 24 22:53 N 9 10 Mostly Cloudy FEW100 SCT120 BKN250 72 61     68%   72 30.18 30.18      
Jun 24 21:53 Calm 10 Mostly Cloudy SCT120 BKN250 73 62     68%   73 30.17 30.17      
Jun 24 20:53 NNE 3 10 Mostly Cloudy SCT100 BKN250 74 60     62%   74 30.15 30.15      
Jun 24 19:53 NNE 6 10 Mostly Cloudy SCT150 BKN250 75 61     62%   75 30.13 30.14      
Jun 24 18:53 NE 8 10 Mostly Cloudy FEW050 SCT150 BKN250 79 57     47%   79 30.12 30.11      
Jun 24 17:53 N 9 10 Mostly Cloudy FEW045 FEW100 SCT150 BKN250 80 60     51%   81 30.11 30.11      
Jun 24 16:53 NNE 10 10 Mostly Cloudy FEW045 FEW130 BKN200 82 62     51%   83 30.1 30.1      
Jun 24 15:53 NNW 9 10 Mostly Cloudy FEW040 FEW150 BKN200 82 63     53%   83 30.11 30.11      
Jun 24 14:53 NNW 13 10 Mostly Cloudy FEW050 FEW120 BKN200 80 62     54%   81 30.12 30.12      
Jun 24 13:53 N 10 10 Cloudy FEW100 OVC200 79 61     54%   79 30.14 30.14      
Jun 12 06:38 SSE 5 1 Light Drizzle and Fog/Mist SKC OVC005 71 71     100%   73 30.04   0    
Jun 12 03:28 S 6 10 Mostly Cloudy BKN013 72 70     93%   73 30        
Jun 11 18:53 S 10 10 Mostly Clear FEW050 86 67     53%   89 29.96 29.95      
Jun 11 15:53 S 10 10 Partly Cloudy SCT050 87 66     50%   89 29.99 29.99      
Jun 11 13:53 S 11 10 Partly Cloudy SCT050 87 64     46%   88 30.03 30.02      
Jun 11 08:53 S 6 10 Partly Cloudy SCT065 76 69     79%   77 30.04 30.03      
Jun 09 18:53 S 6 10 Mostly Cloudy FEW030 BKN250 78 57     48%   78 29.91 29.91      
Jun 09 14:53   10 Mostly Cloudy FEW060 BKN250 82 53     37%   81 29.95 29.95      
Jun 09 04:53 WSW 3 10 Clear CLR 59 59     100%     29.93 29.93      
Jun 06 12:53 ENE 13 10 Partly Cloudy SCT030 86 69     57%   90 29.82 29.82      
Jun 06 11:53 NE 11 10 Partly Cloudy SCT026 85 72     65%   91 29.83 29.82      
Jun 06 09:53 NE 10 10 Partly Cloudy FEW015 SCT250 80 73     79%   84 29.84 29.84      
Jun 05 13:53 E 5 7 Mostly Cloudy FEW015 BKN025 BKN250 77 71     82%   78 29.77 29.76 0